GFSNGP_250_spd_000.txt.gz
Wind_Speed
31 34 36 43 44 49 53 57 56 58 60 61 64 69 75 79 80 84 89 93 96 98 100 104 110 109 113 118 121 122 119 118 117 114 106 102 99 96 96 93 91 88 85 80
40 43 44 47 49 49 51 53 56 59 64 68 71 76 78 81 82 92 99 100 103 106 110 111 111 115 116 118 117 117 117 114 108 104 99 98 94 87 84 80 79 77 77 76
45 48 50 52 52 55 57 64 65 67 70 75 78 80 85 88 89 100 104 107 109 108 109 111 116 119 120 115 114 111 109 105 101 99 97 96 93 88 84 82 80 78 77 73
44 46 47 62 57 59 63 70 73 73 76 82 84 83 88 96 99 102 111 115 113 114 117 119 121 120 114 112 107 103 98 98 97 97 95 92 88 86 84 81 79 77 76 72
51 50 52 67 63 67 68 70 76 78 82 83 86 87 92 98 105 111 114 117 122 123 121 123 124 118 114 109 103 97 94 96 96 96 95 92 89 85 82 80 78 76 71 66
61 61 61 71 73 74 74 75 79 83 83 86 91 95 98 106 107 112 118 122 128 126 124 126 121 114 113 103 97 95 95 97 97 96 92 86 82 78 76 73 71 69 65 58
66 68 70 77 79 81 82 81 80 83 89 95 100 107 111 111 113 121 126 129 133 131 130 129 121 117 108 100 97 97 98 97 96 93 87 82 77 72 70 68 66 62 58 53
72 74 77 80 85 85 88 84 90 93 101 105 110 114 117 119 123 128 131 139 134 133 133 126 120 112 104 102 100 99 98 95 93 88 81 76 72 69 66 64 60 57 53 49
78 78 86 89 91 92 97 99 100 105 110 113 116 120 125 130 134 137 139 138 132 132 128 120 112 106 103 102 101 98 95 92 87 81 76 71 68 66 62 58 54 51 47 45
84 88 91 93 94 97 101 106 109 115 117 119 125 129 134 138 139 141 139 136 134 128 120 111 107 107 105 101 98 95 91 86 81 77 73 69 65 60 55 50 48 48 45 42
93 94 94 97 99 102 108 115 118 120 123 126 129 133 137 140 139 136 135 133 124 119 114 109 105 101 99 94 90 87 83 78 74 71 69 63 58 53 49 45 45 46 44 40
98 101 102 100 104 108 114 117 119 126 132 135 135 136 139 138 135 135 130 120 117 111 110 106 102 97 93 89 85 79 75 72 69 65 59 55 52 49 45 42 41 43 42 40
104 105 107 111 115 119 120 123 128 132 141 144 139 139 138 135 135 126 118 114 112 108 102 98 94 90 86 81 76 72 70 67 62 58 53 50 48 46 45 43 38 41 37 36
109 112 116 120 121 126 129 133 137 140 143 144 140 136 133 128 121 117 113 112 107 101 97 92 87 83 77 72 70 68 65 60 57 54 52 48 45 44 43 41 38 35 33 32
120 120 122 123 126 129 132 139 140 144 142 140 136 131 125 118 113 113 108 103 99 94 89 84 78 72 68 67 65 61 57 54 52 50 48 46 45 43 40 36 33 31 30 29
122 123 126 127 132 137 139 143 145 141 138 135 128 120 113 113 110 105 101 96 90 86 80 74 70 68 66 63 59 55 53 51 50 48 47 46 42 39 35 32 30 30 29 29
130 131 132 135 138 140 143 140 137 132 127 123 117 113 110 107 103 98 92 86 81 76 71 69 68 65 61 59 55 53 51 49 48 47 45 42 38 35 33 31 31 31 31 29
133 135 138 139 137 139 138 133 127 120 114 111 110 108 103 98 92 87 82 77 73 70 68 67 63 60 57 54 52 51 50 48 48 46 42 39 36 34 32 33 32 31 29 26
133 133 133 138 134 129 125 117 110 108 109 108 103 96 91 88 83 78 75 72 70 68 65 62 59 56 53 50 49 49 49 49 47 45 41 38 35 33 33 30 29 28 26 23
130 130 126 122 118 115 110 106 103 103 102 96 89 85 82 79 75 72 70 68 65 63 61 59 55 52 50 48 48 48 48 46 45 41 38 35 33 33 30 27 26 26 24 23
122 119 114 109 105 103 104 101 96 93 88 81 79 76 74 71 69 67 64 62 60 58 56 53 51 48 48 48 47 47 45 44 41 38 36 33 33 29 27 25 24 23 22 22
108 103 100 102 101 96 95 89 83 82 78 75 72 71 69 66 64 61 59 58 56 52 50 48 47 47 47 47 47 45 43 42 40 37 35 32 31 27 25 24 22 21 21 20
95 96 96 95 91 86 84 82 77 76 75 72 69 65 63 61 59 56 55 53 50 49 48 46 47 47 46 45 44 43 41 39 39 37 34 31 29 26 24 23 22 20 19 20
95 94 91 86 82 78 75 74 72 71 68 65 63 60 58 55 54 53 50 48 47 46 45 46 46 46 45 43 41 41 39 38 37 35 33 30 28 25 23 23 21 20 20 19
88 83 79 75 72 71 70 68 65 63 61 59 56 55 54 52 50 48 47 47 45 45 44 45 46 45 44 43 41 39 38 36 36 33 32 29 27 25 24 23 22 21 20 20
76 73 71 70 68 66 65 62 59 56 55 54 53 52 52 49 47 46 44 44 44 44 44 44 44 43 43 42 41 40 37 34 33 33 31 30 27 26 26 24 23 22 21 20
71 69 67 66 62 59 57 55 53 52 51 51 51 50 48 46 44 43 43 42 43 43 43 43 42 41 41 42 41 39 38 35 33 32 32 31 30 28 26 25 24 22 21 20

GFSNGP_250_spd_003.txt.gz
Wind_Speed
31 33 36 42 44 50 50 49 47 51 56 61 66 69 72 76 77 78 80 83 92 96 101 106 110 113 119 123 126 128 131 130 125 120 108 103 98 96 96 95 94 93 90 89
37 38 40 48 47 48 49 52 54 58 63 70 73 76 77 80 81 81 84 91 100 104 108 112 117 122 125 128 131 131 129 127 120 109 104 98 95 92 90 89 87 85 83 81
42 45 46 51 50 51 55 59 61 64 69 73 79 79 81 83 88 92 97 101 108 112 117 123 126 127 129 129 132 128 123 119 110 105 100 97 95 93 91 90 88 84 78 73
45 46 48 61 55 57 59 63 69 70 73 81 82 81 86 90 94 99 104 108 112 117 121 129 132 132 132 135 130 125 117 109 103 99 98 96 94 91 87 85 82 76 70 66
50 49 50 65 63 65 67 67 74 74 83 87 87 88 92 97 101 107 112 114 119 123 131 134 141 139 135 130 127 121 112 107 102 98 95 92 88 84 82 78 73 68 65 63
55 56 59 69 70 72 75 73 76 86 89 94 96 96 98 102 108 114 118 121 126 130 136 142 143 137 133 129 121 114 109 106 101 95 88 84 82 80 75 70 66 65 63 60
61 65 65 72 74 77 79 82 84 91 96 100 102 106 108 114 118 121 125 127 133 139 143 143 140 134 129 121 115 112 107 100 93 86 82 79 76 71 67 64 62 61 59 54
67 72 76 79 78 81 85 87 93 97 102 104 110 115 119 121 122 125 128 132 139 142 144 143 137 130 122 118 114 107 98 92 86 82 78 73 68 65 63 60 58 55 53 48
77 77 82 82 85 88 92 94 99 104 107 113 118 120 122 124 127 132 135 141 145 145 143 137 128 122 116 113 104 96 90 83 80 75 70 67 65 62 57 53 51 49 47 44
77 80 84 87 91 94 97 101 104 107 114 120 122 124 127 131 133 137 140 145 143 141 134 127 121 115 111 102 93 86 82 79 72 70 67 64 60 55 53 49 46 46 45 42
81 83 88 95 97 97 102 107 113 118 124 126 130 132 138 141 142 143 145 144 142 132 124 118 114 108 99 91 85 81 75 70 68 66 62 58 53 50 48 45 43 44 43 40
86 93 97 98 102 107 112 114 121 125 130 131 134 137 142 144 143 142 143 136 128 120 115 112 104 95 90 85 80 74 70 67 64 61 56 52 50 47 44 42 40 42 41 40
95 100 105 109 110 112 117 126 131 133 134 138 142 145 143 142 139 136 127 122 118 115 111 102 93 88 83 79 74 70 67 63 59 56 53 50 47 44 44 42 40 40 36 36
106 106 109 111 117 123 128 130 132 134 139 147 151 147 142 137 132 126 120 116 113 107 99 92 87 82 78 73 69 66 63 59 56 54 51 47 45 44 43 42 39 35 33 31
113 115 118 122 124 125 131 133 138 145 149 155 145 140 133 126 120 116 114 112 106 98 91 85 81 76 72 68 64 61 58 55 53 51 48 45 45 43 41 38 34 31 28 27
122 124 128 129 129 132 137 145 152 151 152 139 131 126 122 118 115 113 109 102 94 89 84 79 75 71 66 62 60 57 54 51 49 48 46 45 42 40 37 34 32 29 28 28
129 130 130 135 135 138 146 153 151 146 137 127 120 114 111 111 108 103 97 90 85 81 77 73 70 66 62 60 56 53 50 48 47 46 46 43 40 37 35 32 31 31 29 26
132 133 135 139 142 146 149 145 140 130 119 111 108 107 106 103 95 92 86 81 78 75 71 68 66 62 59 55 51 49 48 46 46 45 44 41 38 35 33 33 32 29 26 25
138 139 140 148 148 147 139 128 117 112 105 103 104 100 95 90 86 83 78 76 71 68 66 64 61 58 53 50 47 47 46 45 46 45 42 39 35 33 32 32 30 27 25 24
141 146 151 148 139 127 116 109 103 104 103 99 91 85 83 81 78 75 70 68 66 63 62 60 56 51 49 47 45 45 45 45 44 42 39 36 34 32 32 30 27 25 24 23
151 144 132 118 113 107 105 105 102 99 94 88 82 79 77 73 69 66 64 63 61 60 58 55 52 49 46 45 44 45 44 44 42 39 37 36 34 31 29 27 25 24 23 22
127 115 109 105 103 101 102 100 95 88 82 79 76 73 69 65 63 61 60 59 57 56 53 51 48 47 45 45 44 44 43 42 40 38 37 35 33 29 27 25 23 23 23 21
104 101 98 99 98 96 94 89 82 77 75 72 68 65 62 60 59 58 56 56 54 52 50 48 46 45 45 44 43 43 42 39 37 37 35 33 31 28 25 23 23 23 22 21
97 96 95 94 91 87 81 77 73 70 68 65 62 60 59 57 56 55 54 53 50 48 47 46 45 45 44 43 43 43 40 38 35 35 33 31 30 28 26 24 23 23 22 21
92 90 88 84 79 74 71 68 66 63 62 60 58 57 56 56 54 52 50 48 46 45 45 45 46 44 43 42 42 41 39 38 35 33 32 31 29 28 27 26 24 23 23 21
84 82 78 74 69 67 65 64 62 60 58 56 55 55 54 52 50 47 46 45 45 45 45 45 44 43 43 42 41 41 39 38 35 32 31 31 29 28 26 26 25 22 21 21
78 74 70 68 63 62 60 58 58 56 54 53 52 51 48 47 46 44 44 44 45 45 45 44 43 43 42 40 40 39 38 36 34 32 31 30 29 28 27 25 24 23 21 20

GFSNGP_250_spd_006.txt.gz
Wind_Speed
33 34 34 37 38 40 40 44 42 46 52 58 60 62 66 70 75 80 82 85 90 95 100 106 109 112 116 121 124 129 133 137 137 137 125 115 107 102 100 99 96 93 89 85
35 34 36 43 46 45 45 49 50 53 57 62 65 68 71 77 79 84 87 92 98 102 105 108 114 118 124 130 134 136 137 137 134 127 114 108 105 102 97 94 90 84 81 77
36 38 42 51 52 45 48 55 57 58 62 66 70 73 78 81 86 91 96 99 104 110 115 120 122 125 130 137 141 140 135 133 121 111 109 108 105 100 94 88 83 79 75 71
36 39 40 57 53 49 52 58 64 65 68 70 76 80 85 89 94 96 99 106 111 117 119 124 129 136 141 142 140 134 129 121 114 109 107 104 99 92 85 80 77 74 69 64
43 44 44 54 55 55 58 62 69 72 75 81 85 85 90 94 100 102 105 113 118 122 126 131 136 143 143 136 130 123 118 114 110 107 103 97 91 85 80 76 71 67 64 62
50 52 51 59 60 61 63 65 70 77 83 89 93 94 95 99 102 106 114 122 125 127 139 145 143 147 136 127 121 115 112 112 108 101 94 90 85 80 75 70 67 65 63 58
57 57 56 61 64 66 69 72 77 81 87 91 97 101 104 107 112 118 119 124 134 138 149 147 145 137 128 119 114 112 112 106 97 91 87 83 78 73 70 67 64 59 56 52
60 63 64 66 69 74 78 81 85 87 91 98 100 104 109 115 120 123 127 131 138 146 153 145 136 129 121 116 113 110 101 93 87 84 80 76 72 69 66 61 57 54 52 50
67 67 72 72 77 82 85 87 91 96 100 103 110 114 117 124 126 129 131 138 144 151 150 136 126 122 116 115 111 101 92 87 83 79 74 70 67 63 60 56 53 52 51 49
69 73 77 82 85 88 92 97 102 107 108 114 119 125 127 130 130 135 138 146 151 148 134 125 118 114 111 107 98 92 86 81 77 73 70 65 61 56 54 53 52 50 49 46
75 79 83 87 92 97 100 103 108 112 118 124 125 131 132 132 135 140 148 154 148 132 123 117 111 110 105 98 91 87 81 76 73 69 64 62 58 54 53 50 50 50 48 45
85 90 93 93 97 100 104 108 114 119 124 131 133 133 134 137 141 148 155 145 131 122 114 112 111 105 97 91 86 82 77 72 68 64 62 58 56 54 50 48 47 47 44 42
92 94 96 101 106 109 115 120 123 129 131 130 136 139 140 142 149 148 148 127 119 113 112 109 103 96 90 85 81 75 70 67 64 61 57 55 54 53 52 48 44 44 40 36
100 102 106 110 115 119 124 126 129 134 135 139 142 144 149 153 147 139 121 118 116 112 106 100 93 88 83 80 72 68 65 64 60 56 54 54 53 51 49 47 44 38 34 32
107 112 115 120 124 127 129 133 138 142 144 145 150 150 145 132 121 117 113 112 110 103 96 90 85 81 76 71 67 63 62 59 55 53 53 53 51 49 46 43 39 35 31 28
117 121 124 125 130 134 137 141 146 148 149 145 135 127 119 114 112 110 106 103 99 93 87 82 78 73 69 64 62 60 57 55 53 52 52 52 49 46 44 40 37 33 30 29
124 127 131 135 139 137 141 141 143 134 127 122 113 108 108 108 107 105 99 92 87 83 79 75 71 67 62 60 59 56 55 52 51 50 51 50 47 44 41 38 35 32 31 27
128 132 138 142 139 137 136 138 128 121 115 109 105 105 104 102 98 93 87 82 79 76 72 68 64 61 59 57 55 54 51 50 50 49 48 47 45 42 40 37 35 32 29 25
137 137 135 135 134 132 126 114 108 106 106 106 105 102 96 90 84 81 79 75 72 69 65 61 59 57 56 54 52 50 49 49 49 48 46 45 43 39 38 35 33 30 27 24
133 134 135 128 124 116 107 106 106 104 104 101 97 92 86 83 79 75 72 69 66 62 60 58 57 55 52 51 49 48 48 49 48 46 44 42 41 37 35 34 31 28 25 24
126 127 124 113 107 109 109 105 104 102 98 95 88 82 79 75 72 70 67 63 60 59 58 56 54 51 49 48 47 47 47 47 46 44 42 40 39 36 31 31 30 27 25 24
119 113 110 107 104 104 105 105 102 96 91 85 80 76 72 70 67 64 62 60 59 58 56 52 50 48 48 47 47 47 47 46 44 42 41 39 37 35 31 28 29 27 25 24
108 104 103 103 102 101 100 97 93 85 79 75 72 69 67 65 63 60 59 58 57 54 52 49 48 47 47 47 47 46 46 45 42 41 39 38 36 34 32 30 28 28 26 26
103 101 101 101 98 94 89 86 80 72 70 68 66 64 62 61 60 58 57 55 53 51 50 49 47 47 46 47 46 46 45 44 43 41 38 36 34 33 32 30 29 27 27 27
100 97 95 92 87 82 79 74 69 66 65 64 62 60 59 58 57 56 54 52 51 50 49 48 47 46 46 46 46 45 44 44 43 40 36 34 33 32 31 29 28 28 26 26
92 89 86 82 76 71 68 67 65 64 62 60 59 58 56 54 53 52 51 50 49 48 47 46 45 45 45 45 45 44 44 44 41 37 34 33 33 32 31 29 27 27 27 26
84 80 75 71 67 64 62 60 59 60 58 58 57 55 53 51 50 49 48 48 47 46 45 45 44 44 44 44 44 44 43 41 39 37 35 33 32 32 30 29 28 27 26 26

GFSNGP_250_spd_009.txt.gz
Wind_Speed
28 28 30 33 35 32 33 37 39 41 43 49 52 58 61 66 68 71 76 80 84 89 92 96 98 103 110 115 118 124 129 136 144 134 121 113 109 104 103 102 98 92 84 79
34 31 32 38 37 38 37 41 44 47 50 53 58 63 67 69 72 78 82 85 89 95 99 102 106 110 115 118 122 130 135 140 133 121 112 105 102 101 98 94 89 84 78 73
33 33 38 44 42 44 45 49 50 52 57 60 65 67 72 76 81 86 90 93 96 102 108 110 114 118 122 125 127 136 135 133 120 110 105 101 98 93 89 85 81 76 73 68
35 36 39 47 42 44 49 54 56 57 60 65 69 74 79 83 89 92 95 100 106 112 116 120 122 123 129 132 135 136 130 118 109 106 104 99 91 86 82 77 73 70 66 63
38 37 39 50 49 53 54 58 61 64 68 72 78 80 85 91 94 97 102 110 113 118 124 124 125 132 133 136 131 122 114 110 106 103 99 93 88 82 76 72 69 66 62 59
42 43 46 51 54 58 60 65 69 71 73 77 83 85 91 95 99 106 112 116 118 124 130 131 134 135 136 129 120 111 106 106 103 98 91 86 80 75 71 69 66 62 60 55
48 50 54 59 61 65 71 70 72 75 81 84 88 93 98 103 109 114 117 121 126 131 136 140 137 129 123 116 109 106 104 100 92 86 83 78 74 71 68 64 62 60 56 50
54 61 63 66 67 73 73 74 79 83 88 91 95 100 108 112 117 124 128 130 132 137 140 134 123 117 111 106 105 104 99 92 87 83 79 73 69 66 63 61 58 55 52 47
60 67 70 72 74 73 76 79 86 90 92 99 103 110 113 119 125 130 134 136 137 139 131 121 115 109 105 105 104 98 91 86 82 78 73 69 66 62 60 56 53 50 47 45
65 73 74 76 78 80 86 89 91 97 104 105 113 117 119 124 131 134 132 133 134 125 113 110 110 108 105 101 97 91 85 82 78 73 70 67 63 58 55 51 50 47 45 44
73 77 77 82 85 87 90 96 102 106 110 117 118 118 126 132 133 134 129 124 117 110 107 107 108 107 103 96 90 85 81 76 72 70 65 63 59 55 52 49 48 48 46 43
77 81 83 86 90 96 100 107 107 110 115 119 123 127 131 129 130 124 118 111 108 106 105 105 106 102 95 88 84 81 77 72 68 65 62 58 57 55 49 46 47 45 41 40
80 84 89 94 98 104 110 111 112 117 119 124 128 129 128 127 119 112 108 106 106 105 104 102 98 93 88 83 79 76 72 68 64 62 58 57 55 53 53 46 41 43 39 36
89 94 97 103 108 109 112 117 119 125 129 130 129 128 125 118 112 109 106 104 104 103 101 96 90 85 81 78 74 70 67 64 61 58 56 54 53 52 50 47 43 37 35 33
98 102 106 109 112 117 121 124 127 126 128 127 127 122 115 112 109 105 103 102 103 100 94 87 82 78 74 71 68 65 63 60 57 54 53 53 52 50 48 43 40 37 35 32
105 108 110 116 123 125 128 130 126 123 125 124 118 115 111 108 105 104 102 100 95 91 85 79 75 72 69 65 63 61 60 56 52 51 52 52 50 48 46 41 40 37 35 32
112 116 120 122 124 125 129 128 124 122 120 114 110 109 106 103 102 100 96 91 86 81 76 73 70 67 64 62 60 58 55 51 50 50 51 50 49 47 45 42 39 37 34 31
121 123 124 124 124 124 120 121 120 115 114 110 107 105 102 101 95 92 87 83 78 74 71 68 65 63 61 58 56 53 51 49 49 49 49 48 47 46 44 42 38 36 33 29
120 123 123 126 123 118 117 112 109 109 111 107 103 102 99 95 90 86 81 76 72 68 66 63 61 59 57 54 52 50 48 48 48 47 46 46 45 44 43 42 38 34 31 28
122 124 122 116 112 113 113 109 107 107 106 102 99 96 94 89 84 80 75 71 67 65 62 60 58 55 54 52 50 49 48 48 47 45 45 45 43 43 42 40 38 34 31 27
124 116 113 108 108 110 111 109 106 105 101 98 95 91 86 81 77 74 70 66 64 61 59 57 55 53 52 51 49 48 47 45 45 45 44 43 43 42 41 39 36 34 31 28
116 112 107 104 105 104 106 106 104 100 95 92 88 82 78 74 71 68 66 63 60 59 57 55 53 52 51 49 48 46 44 43 44 43 42 42 42 40 38 37 35 34 31 28
110 105 104 103 101 100 100 100 96 93 87 81 77 74 72 69 66 64 61 60 58 56 54 52 50 49 48 46 45 44 43 42 42 42 42 41 40 38 37 37 35 33 30 28
105 102 100 98 96 94 93 91 89 85 79 73 69 69 67 65 63 60 58 56 54 53 52 50 48 47 46 45 44 43 42 41 42 41 40 39 39 37 37 36 34 31 30 27
100 96 96 94 90 89 85 80 79 74 71 69 65 64 62 60 58 57 55 53 51 50 49 47 46 46 45 43 43 42 42 41 41 40 40 39 38 36 36 34 32 30 28 27
94 92 89 87 83 77 75 72 70 68 67 66 62 61 59 58 56 53 51 50 49 47 46 45 45 44 42 42 42 42 42 42 41 40 39 37 36 36 36 33 31 29 28 27
87 84 83 79 75 72 67 64 65 65 62 61 59 58 56 55 52 50 48 47 46 46 46 44 42 42 42 42 42 42 42 41 41 40 38 36 35 35 35 33 31 29 28 28

GFSNGP_250_spd_012.txt.gz
Wind_Speed
32 31 35 33 29 30 30 34 36 37 40 42 48 51 60 63 65 66 70 75 79 82 86 91 97 101 107 112 115 122 126 130 134 133 131 124 117 111 106 104 103 97 89 84
38 34 37 37 32 33 37 36 37 40 46 50 52 58 62 64 67 69 74 79 84 88 94 98 102 107 115 117 124 131 136 133 127 123 115 109 105 104 102 99 94 87 81 76
39 38 42 38 41 42 42 42 44 47 53 56 59 64 66 69 73 77 81 84 91 95 98 102 109 114 121 129 134 133 125 121 116 109 105 104 103 99 95 88 83 79 74 70
39 39 44 40 42 44 46 49 51 55 60 62 68 70 71 75 79 82 85 91 96 99 105 112 116 122 129 136 133 124 118 112 106 104 103 101 97 91 85 80 75 71 67 64
38 39 44 47 46 48 49 55 59 61 65 71 73 75 79 81 84 93 97 97 102 109 113 117 126 129 133 130 119 114 108 105 103 102 98 93 87 81 77 74 70 67 64 60
40 43 46 45 47 51 54 57 62 67 72 75 75 79 81 88 96 101 104 108 111 117 120 128 131 132 125 115 111 108 105 102 100 96 89 83 79 75 71 68 66 63 60 54
46 45 46 47 52 56 61 63 68 72 73 76 82 86 90 96 99 105 110 114 119 124 129 130 129 119 113 110 107 105 102 98 94 87 82 78 74 70 66 63 62 59 53 47
49 51 51 54 59 61 64 68 70 74 78 82 87 90 97 102 107 112 116 121 126 126 124 124 117 111 109 107 105 102 98 92 86 80 76 73 70 65 62 61 58 53 49 46
52 57 57 61 63 66 68 71 75 79 84 89 95 99 104 111 113 117 125 126 125 122 119 112 110 109 105 103 101 97 91 84 79 76 73 69 65 61 60 57 54 50 47 46
57 62 64 67 71 73 77 79 82 88 95 100 103 108 110 115 122 125 126 123 119 114 107 107 107 105 102 99 94 89 83 79 75 72 69 65 61 59 57 54 51 49 48 46
64 67 69 75 79 84 84 86 91 97 102 107 110 111 117 121 125 123 119 112 107 106 104 103 102 99 96 91 86 82 78 76 73 69 65 62 60 58 52 50 49 48 46 44
69 74 78 81 82 86 90 94 98 104 108 111 114 119 122 123 123 120 112 108 107 106 104 101 98 95 90 84 80 76 74 71 68 65 63 60 59 54 50 47 47 46 43 41
78 81 81 83 87 93 98 102 105 111 113 115 119 123 125 121 117 114 107 104 105 103 101 98 92 87 82 77 74 72 70 67 64 62 60 58 54 51 49 46 44 42 40 36
81 84 87 92 97 99 102 108 112 116 117 122 124 125 124 121 118 114 109 103 103 102 98 91 85 80 76 73 71 69 66 63 61 58 56 53 51 49 48 46 43 39 36 33
90 93 97 101 103 108 111 116 119 119 122 124 124 124 121 118 117 111 105 103 101 97 90 84 79 76 73 70 68 66 62 59 56 54 52 51 49 48 46 44 41 37 35 33
96 100 103 107 111 116 119 121 119 121 125 124 122 122 120 118 112 107 103 99 94 90 84 79 75 73 70 67 64 61 57 55 53 51 50 49 48 46 44 43 39 36 34 31
103 106 109 113 116 120 119 120 122 122 124 123 121 119 116 111 107 104 98 94 90 84 79 76 73 70 67 62 59 56 53 51 50 49 49 47 46 45 43 41 39 36 33 31
110 111 115 118 121 118 117 119 120 120 121 119 116 113 109 106 100 96 91 88 83 77 75 72 69 66 62 59 55 52 50 49 48 48 47 45 45 43 42 40 39 36 33 30
113 116 120 121 119 119 118 117 118 118 117 113 109 105 104 100 93 89 84 80 76 73 71 68 65 61 58 55 53 50 49 48 47 46 45 44 43 42 41 40 38 35 32 29
119 121 120 121 120 120 116 117 116 114 111 105 102 100 96 93 86 82 78 74 72 69 67 63 60 57 55 53 51 49 48 47 46 45 45 42 42 41 40 38 36 34 32 30
117 119 121 119 118 117 117 115 111 108 104 101 98 93 89 86 81 77 73 70 68 65 62 59 56 54 52 50 49 48 47 46 45 44 43 42 41 40 38 37 36 34 33 31
115 116 115 114 112 114 114 110 104 101 100 94 91 87 83 79 75 72 69 66 64 61 59 56 54 52 50 49 48 47 47 45 42 42 42 41 40 39 38 36 35 34 33 30
113 114 110 110 111 109 105 99 98 96 92 88 83 80 77 73 70 68 65 62 59 58 56 53 51 49 48 48 47 46 44 43 42 40 40 40 39 38 37 35 34 33 32 30
110 110 109 107 105 100 93 95 93 87 85 81 76 72 70 69 65 62 60 58 57 55 53 50 48 48 48 47 45 43 43 42 41 40 39 39 39 37 36 35 33 32 30 30
108 106 104 102 95 92 90 87 84 81 79 76 71 69 66 63 60 59 57 55 54 52 49 48 48 47 46 44 44 43 41 41 40 40 38 38 37 37 36 36 33 31 29 29
103 99 97 93 90 85 82 78 76 75 71 71 68 65 62 59 56 55 54 53 51 49 48 47 45 44 44 44 44 42 41 40 39 39 38 37 37 36 36 35 34 31 28 28
96 90 89 85 81 78 75 73 71 68 65 65 64 60 58 56 54 53 51 48 48 48 46 45 45 45 44 43 42 41 40 39 38 38 38 37 36 35 34 34 33 31 29 28

GFSNGP_250_spd_015.txt.gz
Wind_Speed
32 34 36 36 34 35 37 37 37 40 44 45 45 50 52 56 61 64 70 74 75 79 83 88 93 100 104 109 114 119 125 131 132 134 131 129 126 122 117 112 110 108 103 97
40 41 43 44 41 40 39 38 41 44 46 49 50 52 57 61 66 71 74 77 81 85 90 95 99 106 111 116 124 132 134 136 134 126 123 119 117 114 111 109 106 99 92 86
40 42 46 44 42 40 42 39 45 46 48 51 53 58 61 65 70 74 76 81 84 90 96 104 108 115 122 126 133 136 130 124 120 114 114 114 110 108 106 100 93 87 82 77
42 42 47 43 43 45 46 45 45 46 49 53 58 62 65 69 72 76 81 86 93 101 107 113 120 122 125 132 133 126 120 113 109 109 109 107 104 100 94 87 82 77 72 68
46 44 46 46 46 48 48 47 47 51 53 58 62 67 74 75 78 82 88 96 100 108 116 118 120 126 130 129 122 119 113 110 109 106 105 101 95 87 83 78 74 70 65 61
50 47 49 45 44 47 46 48 50 57 61 65 69 73 79 83 87 92 98 104 109 114 119 122 126 127 126 122 118 115 110 106 105 103 99 93 85 80 75 71 67 64 61 57
51 52 50 48 50 52 52 53 58 64 68 72 77 80 83 88 93 99 104 110 116 121 124 128 126 124 119 115 113 111 109 104 101 95 88 82 77 72 69 65 63 61 59 55
56 59 54 52 52 54 58 61 64 68 74 78 81 84 89 95 99 106 113 118 124 128 128 125 123 118 113 112 112 109 104 100 94 88 81 75 71 68 64 62 61 58 54 51
61 64 62 59 58 61 63 66 71 76 79 82 86 92 97 102 109 114 123 128 127 126 127 125 119 114 110 109 106 102 98 92 84 79 74 69 67 65 63 61 58 54 51 50
63 67 63 66 66 66 70 75 79 83 87 91 95 101 105 111 115 123 124 126 125 126 125 119 113 109 106 103 99 94 87 81 77 72 69 66 64 61 59 57 54 52 50 48
65 67 66 71 70 73 77 82 86 91 94 98 104 108 113 117 122 127 128 127 127 125 121 115 111 107 103 98 90 83 78 74 71 68 65 63 61 59 54 52 50 50 49 45
67 68 71 73 77 80 85 88 93 97 101 106 111 114 118 123 128 131 130 130 127 122 115 112 108 102 96 88 81 76 73 70 67 64 62 60 58 54 53 50 48 45 45 43
72 72 75 77 82 86 92 96 99 102 106 110 114 118 122 129 131 131 129 127 125 119 113 108 101 94 87 80 75 72 69 67 64 62 59 56 54 52 50 47 48 46 43 40
77 81 82 85 91 94 96 98 102 107 111 116 121 124 128 131 130 130 128 125 119 113 107 100 94 87 80 75 72 69 66 64 61 58 55 54 52 50 48 46 44 41 41 37
82 85 89 92 93 96 100 103 107 111 115 120 123 125 129 130 128 125 123 118 110 106 99 93 86 80 76 72 69 66 63 61 57 55 53 51 49 47 46 45 43 40 37 36
86 89 92 95 98 103 106 108 112 117 121 124 123 128 130 127 125 122 117 110 103 97 92 85 80 76 72 69 66 63 60 57 55 53 51 49 48 47 46 45 41 39 37 34
92 94 97 101 104 107 109 113 119 122 123 122 125 127 125 121 118 116 109 103 95 90 83 79 75 72 69 65 62 60 57 55 53 50 49 48 48 47 45 43 41 39 35 31
96 98 101 103 106 110 115 119 122 120 121 124 125 122 120 117 111 106 101 94 88 83 77 74 71 68 64 62 59 57 55 53 51 49 49 48 47 44 44 42 40 37 35 31
102 102 105 109 112 115 118 120 119 121 123 121 118 117 115 109 103 97 92 87 82 76 74 70 66 63 61 58 56 55 52 50 50 49 48 46 45 44 42 41 39 37 34 31
105 109 112 115 118 118 118 119 118 121 119 113 112 109 105 102 95 90 87 82 75 72 69 66 63 60 58 56 54 52 51 50 49 47 46 45 44 42 40 39 38 36 33 30
114 116 118 118 118 117 117 117 116 115 112 110 105 100 97 96 90 85 80 75 73 69 65 63 60 57 56 54 52 51 51 49 47 46 45 44 42 41 40 39 37 35 33 30
116 115 116 116 115 115 116 117 112 109 107 103 99 93 91 89 84 80 73 70 68 65 63 60 58 55 53 52 53 51 48 47 46 46 44 43 41 40 39 38 36 35 33 31
113 114 115 114 115 114 112 108 107 104 99 97 93 88 85 83 76 72 71 68 65 61 59 57 55 53 52 52 51 48 47 47 46 45 44 42 41 40 39 37 36 35 33 32
112 114 114 112 109 106 103 101 98 95 93 92 87 84 78 76 73 68 66 63 61 58 56 54 53 52 51 50 48 47 47 47 45 44 43 41 40 40 39 38 37 35 33 31
111 108 106 105 103 98 95 93 91 90 88 85 83 79 72 69 67 67 62 58 57 55 53 52 53 51 49 48 48 48 48 46 44 42 41 40 40 39 39 38 36 35 33 30
104 103 102 98 95 92 90 89 87 84 81 78 77 71 67 66 64 61 57 54 54 52 52 52 51 49 49 49 49 49 47 44 42 41 39 39 39 38 36 35 35 34 32 29
102 99 95 92 90 85 84 83 79 78 74 71 68 66 64 63 60 57 54 52 50 50 50 49 49 49 49 49 48 46 43 41 41 40 40 40 40 38 36 35 34 33 32 29

GFSNGP_250_spd_021.txt.gz
Wind_Speed
21 23 26 31 33 36 38 39 40 44 44 43 51 52 47 50 54 55 55 59 63 66 71 75 80 87 93 100 106 112 117 124 128 130 130 124 121 114 112 104 101 98 93 88
26 29 33 38 39 42 44 46 46 46 49 47 50 52 53 54 56 57 61 62 65 70 77 82 88 94 100 106 113 119 124 127 132 129 129 124 117 115 112 100 95 88 83 78
33 37 41 44 48 49 50 51 50 48 50 54 55 54 56 58 57 59 62 66 71 77 83 89 94 98 103 110 117 122 129 133 133 130 124 117 111 106 100 93 91 85 80 77
39 42 44 43 46 50 52 53 56 55 54 55 58 57 58 58 61 64 67 70 77 84 90 93 98 104 109 116 123 128 132 132 127 127 118 109 106 102 93 89 85 82 77 74
41 43 48 49 52 56 56 58 61 62 62 61 62 62 59 60 62 65 71 77 84 89 94 100 106 110 115 122 129 134 135 129 125 120 114 106 98 93 89 83 80 77 73 69
47 50 54 54 57 62 60 61 62 65 67 65 65 63 65 66 69 74 79 85 90 95 101 106 110 115 121 128 132 135 131 128 123 111 103 97 92 85 82 79 76 73 69 65
53 56 58 61 58 56 59 61 63 64 66 66 64 63 64 68 73 80 85 90 95 101 107 111 115 122 128 134 136 131 128 125 114 105 97 92 84 80 77 73 69 68 64 61
61 63 62 60 58 59 64 65 65 65 65 65 65 67 72 77 80 86 91 96 101 106 110 116 123 128 133 135 134 130 126 113 105 98 92 84 80 76 72 69 66 64 62 59
67 67 69 63 63 63 65 67 68 67 67 67 69 74 80 84 88 93 98 102 106 109 115 123 128 131 137 133 131 127 115 105 98 93 85 79 75 71 68 66 63 60 59 57
70 71 74 70 65 64 67 69 69 69 70 73 77 81 85 90 96 100 104 108 112 118 122 127 130 134 134 132 127 120 108 99 94 87 81 76 72 68 65 62 59 56 55 54
73 76 78 73 69 69 70 72 72 74 77 80 84 89 94 99 103 107 110 115 121 125 127 131 132 133 133 129 124 113 102 95 89 81 77 72 69 66 63 59 56 54 53 51
77 80 79 73 73 75 76 76 78 80 82 87 91 97 102 106 109 112 116 121 125 128 129 130 131 130 129 125 113 103 96 89 82 77 73 69 66 63 59 56 54 52 49 46
82 77 73 74 76 79 80 82 85 87 90 94 100 104 108 112 113 116 120 124 128 128 127 127 127 128 122 113 103 96 89 82 77 72 68 66 63 60 57 55 54 50 48 46
77 74 75 79 81 83 85 87 91 93 97 101 105 109 113 116 119 121 126 128 126 125 126 125 126 120 111 101 94 88 82 77 73 68 65 63 59 57 56 55 51 49 48 45
76 77 80 83 86 87 90 93 96 100 103 108 110 114 119 120 124 127 129 126 126 124 125 123 117 109 101 92 87 81 76 72 67 64 62 59 57 55 52 50 49 48 45 45
82 82 84 88 89 92 96 99 103 105 108 111 115 119 123 128 125 123 124 125 122 123 121 114 107 99 91 85 81 75 72 68 64 62 59 57 55 52 50 49 49 47 44 41
84 87 90 93 96 99 101 104 106 109 113 117 120 126 128 121 121 124 125 122 122 116 111 103 97 90 85 80 75 71 67 64 61 58 57 54 51 50 49 49 47 46 43 39
90 93 95 97 100 104 106 109 112 115 119 122 127 123 122 121 121 120 117 115 110 107 101 95 88 85 80 75 70 67 64 60 58 57 55 52 50 50 50 48 45 43 42 40
97 99 102 104 107 111 113 116 118 121 124 125 119 120 117 117 115 111 108 106 102 94 90 87 84 80 76 72 67 64 60 57 56 55 53 51 51 51 49 46 42 40 39 39
106 108 109 111 115 117 119 121 123 126 119 116 115 113 113 110 107 103 102 98 93 87 84 82 80 76 72 68 63 60 57 56 55 53 51 51 51 50 46 43 40 38 37 37
110 113 116 120 122 123 125 124 115 113 114 112 111 109 103 102 99 96 91 89 87 83 80 78 75 72 67 64 60 56 54 54 53 51 51 51 49 46 43 41 39 38 38 37
118 120 121 121 122 118 114 113 110 109 109 108 104 100 97 95 92 89 87 83 80 77 75 73 71 67 63 60 59 56 54 54 51 51 50 49 46 43 41 40 39 39 38 38
118 116 113 111 110 108 108 107 107 105 101 98 96 95 92 88 87 83 81 80 76 73 71 68 65 63 60 56 55 53 53 52 51 50 48 46 43 41 40 40 40 40 40 39
110 108 106 105 105 106 104 102 98 98 96 92 91 89 86 84 86 82 78 75 72 68 65 63 62 60 57 55 53 52 52 50 50 48 45 43 42 41 41 41 40 41 40 40
108 109 108 108 108 106 101 99 100 98 91 87 86 86 83 78 73 72 71 67 65 63 62 59 58 57 56 53 52 51 50 50 48 46 44 42 42 41 41 41 41 41 41 40
111 110 108 107 103 100 99 98 95 92 86 83 82 80 77 73 71 69 66 63 61 59 58 57 55 54 53 52 51 50 50 48 46 44 43 42 41 40 39 39 40 40 40 40
109 107 102 100 100 98 95 91 90 86 83 80 76 75 72 70 67 64 62 61 59 57 55 55 54 53 52 51 50 50 49 47 44 43 42 42 40 39 38 39 39 39 38 38

GFSNGP_250_spd_024.txt.gz
Wind_Speed
18 19 22 25 29 32 35 37 40 44 46 49 50 51 51 52 54 56 58 60 62 62 63 66 69 74 81 87 93 99 106 112 115 122 128 129 124 122 117 115 108 101 94 90
21 23 26 31 35 37 38 44 45 47 52 53 54 55 56 57 58 59 61 61 60 61 64 69 76 81 87 94 99 105 110 116 124 130 131 128 124 119 112 104 100 93 87 82
25 27 30 34 36 40 44 50 50 56 60 59 56 59 62 62 63 62 61 62 62 65 71 76 81 88 95 100 105 111 117 124 131 132 128 123 118 112 105 98 92 86 81 78
29 30 30 35 41 45 48 54 55 57 58 57 57 59 61 63 64 64 64 64 68 72 79 84 90 96 101 107 113 119 124 129 131 129 125 122 116 105 98 90 84 80 77 73
30 33 36 40 45 49 53 58 60 60 62 62 62 62 62 63 65 66 67 70 74 79 85 91 97 103 109 114 119 125 127 132 129 127 121 116 108 96 90 84 80 76 72 69
39 41 44 48 52 54 59 63 64 67 68 65 64 62 64 66 67 70 72 76 80 87 92 98 104 110 115 121 126 128 132 131 130 125 119 109 100 91 85 80 77 73 69 66
46 48 50 52 56 59 64 66 66 71 70 66 66 67 69 71 73 76 80 83 88 94 99 105 110 115 120 128 132 130 127 127 125 120 112 103 94 87 81 78 73 69 66 62
54 57 56 60 61 65 68 68 71 75 70 68 68 70 73 76 78 81 85 90 95 100 106 110 115 120 127 131 130 129 129 126 122 115 106 98 90 83 78 74 69 66 62 59
59 61 64 66 67 69 70 72 76 76 71 70 71 74 77 79 83 88 92 97 101 106 110 116 121 125 132 129 131 131 126 124 118 109 100 92 85 79 74 69 66 63 59 58
64 68 71 70 70 74 73 76 78 75 72 73 75 77 82 86 90 95 99 104 107 112 115 122 127 133 129 130 128 127 126 119 110 103 94 86 80 76 71 67 63 60 58 56
69 72 70 72 74 76 78 79 79 74 73 76 80 84 87 92 96 101 104 108 113 117 122 126 133 131 130 129 128 127 120 111 103 95 87 81 76 71 67 63 60 59 56 52
72 73 74 75 77 78 80 80 77 77 79 82 85 89 93 96 101 106 111 115 119 123 127 133 132 130 127 127 125 120 111 102 95 87 81 76 72 66 63 60 58 55 52 49
73 77 79 79 78 81 79 78 81 84 86 88 91 95 99 103 109 113 118 119 125 130 135 131 127 125 124 121 116 107 100 93 87 81 76 72 68 63 59 57 54 51 50 48
81 83 80 81 83 83 84 84 87 88 91 95 99 103 107 111 115 118 123 127 132 134 127 127 124 123 118 113 102 97 91 85 80 76 72 68 64 60 58 56 52 50 50 48
82 81 83 82 82 85 86 88 90 92 97 101 106 110 113 117 120 124 129 132 128 127 127 122 121 117 110 99 93 89 84 79 75 72 68 64 60 58 56 53 52 51 50 47
81 82 83 85 87 89 91 94 96 101 105 108 112 115 119 122 126 130 128 125 126 123 121 118 112 105 96 91 88 83 79 75 72 68 64 61 57 56 53 51 51 49 46 44
83 85 88 90 92 94 97 99 104 107 110 113 117 121 124 127 130 127 123 122 121 117 113 106 100 94 89 86 82 78 75 71 68 64 60 57 55 54 52 51 49 46 43 40
89 91 93 94 97 100 103 107 110 114 117 121 124 126 128 125 122 120 118 114 110 104 101 95 91 88 85 82 78 74 70 67 64 61 58 55 53 52 51 50 46 43 40 38
94 96 98 102 104 107 111 114 117 121 125 128 126 123 120 117 113 109 105 102 96 91 90 88 86 83 81 77 73 69 66 63 60 57 55 53 51 51 50 47 44 41 39 37
101 104 107 111 115 118 122 124 126 128 125 122 114 114 113 105 101 98 96 92 88 86 85 83 81 79 75 71 66 64 62 59 56 54 52 51 50 50 48 44 42 40 38 37
110 113 116 120 125 127 125 121 120 119 116 112 111 107 99 94 94 92 86 84 86 84 79 77 74 71 69 66 63 60 58 55 54 52 51 49 49 48 44 41 40 39 39 37
119 123 126 125 121 119 118 114 111 109 109 106 99 96 91 92 88 85 86 81 80 78 76 73 69 66 65 64 61 57 53 52 51 50 49 49 48 45 41 40 40 40 39 38
123 120 118 115 112 111 111 109 107 104 99 98 98 95 89 86 84 78 81 82 79 76 73 67 65 65 63 60 56 53 51 50 49 48 47 48 46 43 40 40 40 40 39 39
110 109 109 111 113 109 106 105 100 100 96 96 94 89 83 81 81 80 79 76 74 70 68 65 64 61 60 56 52 49 48 48 48 48 47 46 44 41 40 40 40 39 39 39
113 115 113 108 107 104 102 100 98 96 93 91 88 85 82 78 76 77 76 73 70 67 63 62 60 57 55 52 49 48 47 47 47 47 46 45 42 40 40 40 39 39 38 38
116 112 107 104 103 100 96 94 91 92 90 86 86 83 80 78 75 74 71 68 66 63 61 59 56 53 52 49 48 47 47 47 47 46 45 43 41 40 40 40 39 39 39 38
104 100 98 97 96 93 90 89 86 85 82 80 78 78 76 74 73 70 68 66 64 61 59 57 54 51 50 49 47 47 46 45 45 44 43 42 40 40 40 40 39 39 38 38

GFSNGP_250_spd_027.txt.gz
Wind_Speed
20 21 21 20 21 25 29 30 32 37 42 46 48 50 53 55 56 56 57 58 59 61 63 63 65 67 72 77 82 89 96 102 108 113 118 124 128 127 123 117 110 105 101 97
22 23 23 25 27 29 29 33 36 40 45 49 52 54 56 60 59 58 57 58 59 61 64 66 69 73 79 84 91 97 102 108 114 118 125 129 130 127 121 115 109 103 95 89
24 23 24 30 31 30 34 40 44 46 51 54 57 59 61 65 63 61 61 60 61 63 67 71 75 81 86 92 99 104 108 114 119 124 129 133 127 124 121 111 107 97 89 83
27 26 26 32 34 35 39 45 49 52 56 59 60 62 65 69 66 61 60 63 68 72 75 78 83 89 94 100 105 109 115 119 124 130 132 127 126 122 115 109 101 91 85 79
28 30 28 35 41 42 45 50 55 58 63 64 64 64 68 70 67 64 65 69 73 77 81 85 91 96 101 106 110 117 122 127 131 130 124 125 124 118 112 102 93 85 80 75
30 32 35 41 47 51 53 55 60 65 65 68 68 69 73 74 72 69 71 75 79 83 87 92 97 103 109 114 120 124 130 130 128 126 125 124 120 113 102 94 87 80 75 70
36 36 39 47 53 56 58 60 65 68 68 71 72 74 76 76 73 72 75 80 85 88 93 98 104 110 115 120 124 130 130 127 125 127 125 121 114 105 95 88 81 76 71 66
41 44 46 53 57 58 62 66 71 70 72 74 76 78 76 74 75 79 84 88 91 94 100 105 110 115 119 127 130 131 130 127 128 127 122 116 107 98 90 82 76 71 66 62
49 53 56 58 59 63 67 71 70 70 76 79 80 81 80 81 83 86 89 92 95 101 106 111 116 121 126 130 132 132 130 129 129 123 116 106 98 91 83 76 71 66 63 59
58 63 66 65 66 67 70 72 72 75 80 81 82 83 84 85 86 91 94 97 102 108 111 117 122 127 131 131 131 130 129 128 122 116 108 99 92 84 77 71 66 62 60 57
61 66 66 70 73 74 75 74 74 80 83 81 81 82 84 88 91 96 100 103 109 113 117 122 127 131 130 131 131 128 127 121 116 109 100 93 85 77 72 66 62 59 57 55
65 71 72 75 76 77 77 76 80 83 82 81 82 86 90 93 98 101 105 110 115 120 123 129 130 130 127 130 127 123 118 114 108 100 92 84 78 72 67 63 59 57 55 53
72 75 76 77 76 77 79 82 84 83 81 84 88 92 96 99 103 107 111 116 121 126 129 128 129 127 127 126 120 115 111 105 98 91 84 78 73 67 62 59 57 55 53 52
79 79 76 78 81 81 83 85 85 85 87 91 93 97 101 104 108 114 119 123 126 127 126 127 128 126 124 116 111 106 101 96 89 83 78 73 68 64 60 55 52 51 51 51
79 78 81 80 82 85 86 86 87 89 92 96 100 103 107 111 116 120 124 127 124 122 123 125 122 118 113 107 103 97 94 87 81 77 73 68 64 61 57 54 51 48 49 49
78 78 81 84 85 87 88 90 91 95 99 102 105 109 114 118 122 127 126 122 118 120 123 120 113 108 103 98 94 90 86 81 77 72 69 65 62 58 54 51 49 49 49 46
80 81 84 86 87 90 93 95 98 102 106 109 114 118 123 127 125 121 118 116 118 119 114 109 104 100 95 91 87 83 79 76 72 68 65 62 59 55 51 49 48 48 46 43
85 86 88 90 93 96 99 103 105 109 113 118 122 126 125 118 117 118 119 119 117 111 106 101 96 93 89 85 81 77 75 71 69 66 63 59 55 51 49 47 47 46 43 40
88 90 93 97 101 104 108 111 115 117 121 124 126 121 119 117 119 120 115 110 106 100 99 95 89 86 84 80 77 74 70 68 67 63 60 56 52 50 47 46 45 44 40 39
94 97 101 105 109 113 116 119 121 125 126 124 118 118 119 120 118 108 105 101 98 95 89 86 83 81 77 75 72 69 67 66 64 61 57 53 49 47 46 45 44 42 38 38
103 106 109 112 117 122 123 125 125 125 121 117 114 117 117 110 107 101 98 93 93 88 84 81 79 75 73 69 67 66 65 63 60 57 54 50 47 47 46 44 43 40 38 38
112 115 117 120 123 126 124 122 119 117 116 115 116 110 104 101 98 94 92 87 84 83 80 77 73 72 69 67 65 64 62 59 56 54 52 49 48 46 45 44 42 40 38 37
121 122 123 122 119 115 112 109 110 110 106 103 100 98 94 92 91 88 84 86 83 79 76 74 71 70 67 64 63 61 58 57 54 52 50 48 46 45 44 43 41 39 38 36
115 112 107 105 105 107 109 109 105 101 96 95 94 92 89 87 86 86 80 78 75 74 72 71 69 67 65 64 62 59 57 55 52 51 50 49 46 45 43 42 40 38 37 37
108 108 110 111 111 109 104 98 97 97 94 92 91 90 87 83 78 77 76 73 71 71 70 68 67 66 64 62 60 59 57 55 52 51 50 48 46 45 42 41 39 38 38 36
113 116 110 105 102 98 97 95 91 92 91 88 87 87 82 78 74 72 72 70 69 68 67 66 65 64 62 60 59 58 56 54 52 50 49 47 46 44 42 41 40 39 37 36
100 98 98 97 96 94 92 90 88 87 85 81 76 77 75 73 70 68 67 67 67 66 65 63 62 61 59 57 57 56 55 53 51 49 47 46 44 42 41 40 39 38 37 36

GFSNGP_250_spd_030.txt.gz
Wind_Speed
15 17 19 21 23 24 27 29 31 32 33 36 41 44 51 55 53 55 57 61 62 62 59 58 60 63 67 72 77 83 90 95 101 107 112 117 123 124 128 127 125 122 116 108
18 20 21 23 28 27 31 32 32 33 39 44 45 50 55 60 58 58 61 65 65 65 61 61 66 70 75 80 85 91 97 103 109 113 118 125 125 129 128 127 123 119 108 102
22 23 22 30 31 31 33 32 34 39 42 46 50 55 60 64 61 63 65 68 69 66 64 68 73 78 84 88 92 98 103 108 112 117 124 126 129 126 127 125 120 110 103 96
27 27 25 34 37 35 32 35 40 45 47 52 55 60 66 65 66 68 72 72 74 72 73 77 80 85 90 93 98 103 110 113 118 122 127 128 128 126 125 120 113 107 97 92
31 33 29 35 39 36 37 40 48 50 56 57 60 65 70 69 69 73 75 75 76 75 78 82 86 91 95 100 106 110 114 119 123 124 127 128 127 125 121 114 108 100 93 86
35 32 28 37 41 40 41 42 53 58 61 63 66 68 73 73 72 76 78 79 78 79 83 87 92 96 101 105 110 115 121 122 124 123 124 126 124 120 116 109 101 94 87 81
36 31 30 39 41 44 47 51 56 62 66 68 70 73 76 77 75 80 82 81 80 84 88 92 96 101 106 110 116 121 123 124 123 124 124 124 121 116 110 102 95 88 81 76
36 38 38 42 46 50 55 59 64 66 68 71 75 77 78 77 79 83 85 82 85 89 93 96 101 107 112 118 121 123 123 121 121 124 123 120 116 111 103 97 90 83 76 70
46 47 46 48 53 58 62 65 68 71 74 76 78 78 79 80 83 86 85 86 90 94 98 103 108 113 119 122 121 122 122 121 123 122 119 116 112 104 98 91 84 76 70 66
50 52 55 58 60 63 66 69 72 75 78 81 80 80 82 84 87 89 88 90 94 98 104 109 114 120 121 120 121 121 123 121 119 117 115 111 105 99 91 84 76 70 66 64
51 58 61 64 67 68 71 74 78 82 84 83 83 83 85 89 91 90 92 96 100 105 109 115 119 123 121 120 119 122 121 118 115 113 110 104 99 92 85 77 72 67 64 60
59 64 65 68 71 74 78 81 84 86 87 86 86 87 90 91 91 93 96 101 106 111 115 119 123 122 118 118 119 121 120 116 112 108 103 98 92 86 77 72 69 65 61 58
67 70 71 73 75 78 82 84 87 87 87 88 89 91 92 92 94 98 102 108 113 117 120 122 123 115 116 118 119 118 116 111 108 102 97 92 86 79 72 68 66 63 59 55
74 75 78 81 83 85 87 87 89 91 92 92 93 93 94 97 101 105 111 115 119 122 124 119 115 116 118 118 115 114 111 107 102 97 91 86 80 72 69 65 61 58 57 53
79 82 83 84 84 86 89 91 92 92 92 93 94 96 99 104 109 114 118 122 125 123 117 116 117 119 118 115 113 110 106 100 95 90 84 81 74 70 67 63 59 55 53 50
80 80 82 85 88 91 90 91 91 92 93 95 98 102 106 111 117 121 124 126 122 117 115 116 119 120 114 111 109 105 100 94 89 84 79 74 70 67 65 60 57 53 50 48
81 84 87 89 89 90 91 93 94 96 99 102 106 111 115 119 125 126 128 123 118 116 116 120 121 111 108 106 103 98 92 86 83 79 73 69 68 65 61 58 55 51 49 47
86 86 87 89 91 93 95 98 101 103 106 111 115 118 123 127 127 124 120 118 118 120 120 115 109 106 102 100 96 92 85 80 78 74 69 66 64 61 59 55 53 51 48 46
88 90 92 94 96 99 102 105 108 111 115 118 121 124 127 127 120 119 120 121 120 118 110 107 104 100 98 94 89 84 80 76 73 69 66 64 61 59 56 54 53 51 47 44
92 95 98 101 104 106 109 112 115 118 122 123 124 126 119 118 120 121 121 116 113 101 100 100 96 92 89 86 82 79 75 72 69 65 63 61 58 56 54 53 52 50 46 43
101 102 106 109 111 113 116 119 121 123 125 123 117 118 121 121 121 113 106 99 100 98 97 93 89 85 83 79 77 74 71 67 65 63 60 58 56 54 53 51 51 49 46 43
108 111 115 117 119 121 121 122 123 121 117 117 118 117 110 106 101 99 99 95 91 90 87 85 83 81 77 73 72 69 67 65 62 60 58 54 53 53 52 51 50 49 46 42
117 117 119 121 120 119 118 115 115 115 116 115 111 106 101 98 95 93 88 90 89 87 83 79 78 75 72 70 68 66 64 62 61 59 56 53 53 52 51 50 49 47 45 42
117 116 114 112 109 108 109 110 110 106 102 99 97 96 93 91 90 92 87 84 80 77 75 73 72 71 68 66 65 64 62 61 58 58 56 53 51 50 50 49 47 46 43 40
111 110 111 110 110 110 106 101 100 100 98 96 96 97 94 89 82 79 78 77 75 72 70 69 68 67 65 64 62 61 60 58 58 56 55 53 51 50 47 46 46 44 42 39
111 112 109 106 102 101 101 98 95 94 93 91 89 87 84 81 78 74 72 71 69 68 66 65 65 64 63 61 60 58 56 56 56 55 53 51 49 48 47 46 43 41 40 38
104 102 101 98 94 92 91 89 85 83 82 78 76 77 75 74 72 70 69 67 66 64 63 64 63 62 61 59 57 56 54 53 53 52 50 49 48 47 45 43 41 40 39 38

GFSNGP_250_spd_033.txt.gz
Wind_Speed
14 13 14 14 16 20 20 24 27 29 31 27 31 35 41 44 48 52 55 58 61 63 65 67 70 70 69 70 72 75 80 86 90 96 102 109 110 111 115 117 120 121 120 117
17 17 15 18 23 24 25 29 30 31 36 30 36 41 45 50 53 57 60 63 67 70 70 70 73 75 76 76 79 83 87 92 98 103 110 112 113 114 116 118 121 119 116 112
19 19 18 25 29 29 31 32 32 35 35 36 41 47 52 55 60 64 65 69 72 75 75 75 77 79 81 81 84 88 93 98 104 109 114 116 115 115 116 119 119 115 111 106
25 25 24 32 36 36 32 34 35 36 36 41 45 51 56 60 65 66 69 72 75 78 78 79 80 84 85 84 88 92 97 103 109 113 118 117 115 115 118 117 113 110 107 99
29 31 31 35 40 42 38 37 38 38 41 46 52 56 60 66 68 71 74 76 79 80 82 83 85 88 87 88 93 97 103 109 113 117 118 117 115 117 116 113 110 107 102 95
33 33 34 41 44 43 42 40 42 43 48 53 58 60 65 68 72 76 78 82 82 83 86 87 90 89 89 91 98 102 109 113 118 119 117 116 114 115 112 110 108 104 97 91
36 36 37 42 44 45 45 44 44 51 57 61 64 67 71 74 77 81 84 86 87 88 89 91 92 91 93 97 103 109 114 118 120 118 114 112 114 111 110 107 105 98 92 86
40 41 41 45 47 48 48 49 53 57 62 66 69 72 74 78 83 86 88 90 91 93 93 93 91 93 97 103 110 114 118 121 118 114 113 113 112 110 107 105 100 93 88 82
46 46 46 46 47 49 53 57 61 63 67 70 72 75 78 82 87 90 92 93 95 96 95 92 94 98 103 109 115 119 121 117 111 111 112 112 110 107 105 100 94 88 83 76
48 51 53 53 53 56 60 61 65 69 72 75 77 80 84 88 91 92 94 96 96 95 95 97 101 105 110 116 121 122 116 112 111 111 112 111 108 105 102 96 90 84 78 72
51 54 55 58 59 63 64 68 72 75 78 81 84 87 91 93 92 95 95 94 94 95 99 103 107 113 117 120 123 114 112 111 110 112 113 109 106 102 96 91 85 79 73 69
49 56 58 62 65 67 71 73 77 80 83 88 91 94 94 93 95 94 94 94 97 100 105 109 113 118 121 122 114 113 112 112 112 112 110 107 102 96 90 85 79 74 69 65
57 60 63 65 68 72 75 79 83 86 91 94 95 94 94 94 93 95 98 102 105 108 111 115 119 121 120 113 112 112 114 116 111 107 105 101 96 90 84 78 73 70 66 62
65 66 70 72 75 78 82 86 90 93 95 96 95 94 92 93 95 99 103 108 111 114 118 121 121 116 112 113 114 114 114 109 106 104 100 95 89 84 78 74 69 64 63 59
72 73 75 78 82 85 89 93 94 93 93 94 93 93 95 99 103 107 111 114 118 121 123 122 117 116 115 115 117 112 107 105 103 99 94 88 83 78 73 69 65 61 58 56
76 80 83 85 89 92 94 92 93 91 91 93 96 100 103 106 110 114 117 120 124 125 124 122 117 118 116 113 110 106 106 102 99 93 88 82 77 74 70 65 61 57 55 53
82 85 88 91 93 92 91 91 91 94 97 101 104 107 111 114 118 121 123 126 126 123 118 118 118 118 114 108 108 105 98 95 91 85 81 77 73 70 66 61 58 55 52 51
91 92 93 92 91 92 93 95 99 102 106 109 112 116 118 121 123 125 127 123 121 120 119 120 116 110 106 104 100 97 93 87 83 79 75 72 70 65 61 59 55 53 49 48
93 94 93 93 94 97 100 103 107 110 114 116 120 121 123 124 123 122 121 122 122 120 121 114 110 108 102 100 95 88 83 79 77 73 70 68 66 62 58 55 53 50 47 46
93 93 95 98 100 103 107 111 113 115 118 121 123 124 123 121 118 121 123 124 123 115 109 106 102 99 92 89 84 79 75 73 71 70 67 64 61 60 55 52 52 50 46 45
96 98 101 103 108 111 113 116 119 121 122 121 122 120 120 121 123 122 119 111 109 106 103 99 92 87 84 80 77 75 71 69 67 65 62 60 57 56 54 52 51 49 47 45
102 104 108 111 113 114 116 119 121 122 121 118 117 117 117 117 112 108 107 103 97 96 90 87 84 81 79 77 73 70 68 65 63 61 58 56 54 52 52 52 50 47 45 44
109 110 112 112 116 118 118 116 113 111 112 114 114 111 106 103 101 97 94 95 91 88 83 80 78 76 74 72 69 66 64 61 59 57 55 54 52 51 50 49 48 46 43 41
111 113 113 114 113 112 110 111 110 109 107 105 105 101 97 94 91 91 87 83 81 78 75 73 72 70 69 68 65 62 59 57 56 54 52 51 51 51 50 47 47 45 43 40
111 111 109 109 109 109 108 105 104 103 101 97 96 94 92 90 86 82 78 75 74 72 69 68 67 65 64 62 59 58 56 55 54 52 51 50 50 49 49 46 44 44 41 39
109 109 109 109 105 102 100 96 95 94 91 88 88 86 84 82 80 77 75 71 68 66 64 63 62 61 59 59 57 56 55 54 52 50 49 48 47 47 47 46 43 42 40 37
107 104 101 98 94 93 92 91 89 86 82 78 76 76 75 74 73 71 69 67 65 64 62 61 60 59 58 57 56 55 54 52 50 48 46 45 46 45 45 43 42 40 40 38

GFSNGP_250_spd_036.txt.gz
Wind_Speed
20 20 18 17 18 20 21 21 25 28 30 28 29 34 38 39 41 44 48 49 53 58 63 65 68 73 77 80 80 82 82 83 86 85 87 92 98 104 110 113 114 111 111 111
21 21 20 19 23 24 23 24 28 29 35 35 35 37 40 41 44 50 54 56 60 64 67 71 75 79 81 85 85 85 87 88 88 88 92 98 104 110 115 115 113 110 112 111
25 23 20 25 28 26 27 30 31 33 38 39 41 42 42 45 48 55 59 62 65 70 75 78 80 84 87 88 88 89 90 90 88 92 98 104 110 114 119 115 112 114 113 111
27 24 25 32 32 33 33 35 36 38 40 44 45 45 45 47 54 59 63 68 71 75 78 81 85 88 90 90 91 93 92 90 93 98 104 110 115 119 116 112 112 112 111 107
29 31 32 34 37 39 37 40 40 42 45 48 48 48 49 55 61 65 69 72 76 79 83 86 89 92 91 93 94 92 92 95 99 104 109 115 118 118 115 114 112 110 108 104
34 35 35 39 40 41 41 42 45 47 51 51 51 52 56 62 66 70 75 77 81 84 87 90 92 91 93 95 93 93 97 101 105 110 114 118 118 116 114 111 110 107 103 100
37 36 38 40 41 42 44 45 48 50 52 53 53 58 63 66 71 75 79 83 85 88 92 94 92 93 94 93 94 98 102 106 111 115 119 118 115 112 111 112 107 103 101 98
38 40 40 42 43 46 49 50 52 53 54 56 61 66 69 72 75 80 83 86 91 94 95 94 95 94 94 97 101 106 109 112 116 120 117 113 111 111 110 107 104 102 100 94
42 43 44 44 47 50 52 54 57 60 62 65 67 69 72 75 79 82 87 91 94 95 96 95 94 94 96 100 105 110 114 117 119 117 115 113 110 111 109 105 104 99 95 89
45 47 47 48 51 52 53 55 58 62 66 69 71 72 76 79 83 87 92 94 93 92 93 93 95 100 104 107 110 115 117 119 117 114 111 111 111 108 107 104 100 95 89 82
47 48 48 50 50 50 56 60 64 66 67 71 75 78 82 85 89 93 93 90 91 92 94 98 102 105 109 113 116 118 120 117 112 110 111 112 108 106 103 100 95 88 83 77
50 52 54 57 60 61 62 66 67 71 74 78 82 84 87 91 95 91 90 91 93 97 101 104 108 111 113 116 118 119 116 113 114 114 111 107 103 101 99 95 88 82 78 72
55 57 59 60 63 66 70 72 76 79 82 83 86 89 94 96 92 93 94 96 99 105 109 112 114 118 119 119 117 113 110 112 112 110 105 102 102 99 93 85 80 76 73 69
60 62 66 70 72 73 76 79 82 83 85 89 93 98 97 95 97 98 99 103 107 110 112 116 119 120 122 118 113 114 115 111 109 107 104 101 96 90 84 78 73 70 68 66
68 72 72 73 76 79 81 82 84 87 92 98 97 96 97 99 101 103 106 111 115 117 119 120 121 123 118 116 115 115 111 109 107 105 100 93 90 85 78 73 69 67 64 62
73 75 76 77 79 81 84 87 91 97 100 97 98 99 100 103 106 110 114 115 118 120 122 123 120 117 115 114 112 109 109 107 102 97 90 86 82 77 73 69 66 64 61 58
76 78 79 81 83 86 91 96 99 98 97 97 98 102 105 109 113 116 119 122 124 123 122 115 115 113 113 111 110 108 102 96 93 88 81 79 76 72 69 66 63 61 58 55
79 82 84 88 92 96 99 98 97 97 98 102 105 109 113 116 118 121 122 122 120 119 117 116 116 115 113 108 100 94 90 87 84 80 76 74 71 68 66 63 60 57 55 50
87 90 93 96 97 96 97 98 100 104 106 109 112 114 117 119 120 120 120 119 120 119 120 115 111 108 103 97 93 88 84 80 77 74 71 69 67 65 63 61 58 54 50 49
91 93 94 94 95 96 99 103 106 109 112 114 117 119 121 120 118 116 115 117 119 114 110 108 102 96 92 88 84 79 78 75 72 69 67 65 63 61 60 57 54 51 49 47
90 92 94 96 100 103 106 109 112 115 116 115 118 118 115 113 115 117 115 110 111 106 101 96 92 88 82 79 77 75 73 69 68 65 63 61 59 57 55 53 51 49 48 47
93 97 100 103 106 109 112 114 116 116 114 112 111 109 111 113 114 111 109 103 98 94 89 84 80 78 76 74 72 69 68 65 64 61 59 57 55 53 51 50 49 48 47 46
101 104 107 110 110 112 112 111 113 112 109 108 111 111 107 107 103 98 94 93 87 82 79 77 76 73 71 69 68 67 64 61 59 56 55 53 52 51 50 49 48 48 46 45
106 107 109 110 109 108 108 105 108 110 110 110 109 106 101 96 94 88 83 79 77 75 72 70 69 67 66 65 63 62 60 57 56 55 54 52 51 50 48 47 47 46 45 43
104 105 106 108 108 106 108 111 111 108 105 102 100 98 92 86 81 80 78 76 73 71 68 66 64 62 61 60 59 58 57 56 55 54 52 50 48 46 46 45 45 45 44 42
106 105 104 106 108 108 108 106 103 99 97 94 90 86 83 81 79 76 73 71 69 66 64 62 60 59 58 57 58 58 57 53 51 50 49 48 47 47 45 44 43 42 41 40
104 107 106 104 101 100 98 96 94 89 85 81 79 78 77 75 73 71 69 67 66 63 61 59 58 57 56 55 55 53 52 50 48 47 46 45 45 44 43 42 41 40 38 38

GFSNGP_250_spd_039.txt.gz
Wind_Speed
23 25 25 25 24 24 24 24 26 28 28 31 30 34 36 40 42 44 46 48 49 53 58 62 66 69 73 76 80 84 87 90 89 86 88 89 90 93 98 102 105 109 115 115
26 27 27 24 26 26 27 28 29 31 32 33 36 37 40 41 45 48 50 53 52 57 63 67 70 75 78 81 85 87 90 91 89 89 90 91 94 99 104 107 112 115 116 113
29 28 27 28 31 28 29 33 32 33 36 37 40 44 46 47 49 53 55 55 56 64 69 72 75 79 82 85 89 92 93 91 90 92 94 96 100 106 109 113 116 118 115 112
30 28 29 34 32 33 34 35 35 37 40 43 45 48 49 50 54 56 57 57 63 69 73 76 80 83 87 90 93 94 92 92 93 93 97 102 105 109 113 116 119 114 111 113
31 31 34 36 37 37 37 40 39 44 47 49 50 51 52 52 57 55 57 64 69 74 77 81 83 86 91 94 96 93 92 93 94 98 102 105 110 112 115 118 113 112 113 112
35 36 36 38 39 41 42 43 45 50 51 51 53 54 57 57 58 62 67 70 73 76 80 81 86 89 95 97 93 93 94 97 101 105 107 111 114 116 117 111 112 114 112 109
38 38 40 41 42 43 45 48 50 51 53 55 57 58 61 64 66 69 71 74 77 80 83 87 89 94 97 94 94 95 98 103 108 110 112 115 117 117 112 112 112 113 111 108
39 39 40 43 44 47 48 49 51 53 55 58 59 59 62 65 69 73 74 75 80 85 88 90 95 98 96 96 99 102 105 109 112 114 116 117 116 113 114 112 108 106 106 103
41 41 42 43 45 46 49 52 54 56 57 58 60 60 65 70 73 74 78 82 86 86 91 97 97 96 97 99 103 106 110 112 115 118 116 113 113 112 111 108 106 105 100 94
42 42 43 46 48 50 52 54 56 57 59 63 64 68 70 74 76 79 83 86 88 91 98 96 96 97 100 104 107 111 113 115 118 118 116 115 116 113 113 110 107 101 95 89
45 46 48 47 48 51 54 57 59 62 63 67 71 73 77 80 84 87 88 89 94 99 96 96 98 101 105 109 113 116 117 115 116 112 112 111 114 115 111 105 99 93 88 84
47 47 49 52 53 57 60 63 65 66 70 75 78 81 84 87 89 88 91 96 100 97 97 100 104 108 111 114 116 119 118 119 116 117 115 116 114 109 104 98 93 88 83 78
49 53 56 60 61 64 66 67 70 75 77 79 83 86 89 89 90 93 100 101 99 100 103 107 110 114 115 118 119 119 115 115 115 115 113 109 104 100 97 94 89 85 78 74
59 62 62 67 66 70 71 76 78 80 82 85 88 89 90 92 97 102 102 100 101 105 110 113 116 118 120 117 116 115 114 112 110 108 106 104 100 94 88 84 79 77 73 70
65 68 70 70 72 75 79 81 83 85 87 88 89 92 96 100 102 101 102 104 109 113 116 118 119 121 122 122 116 114 112 112 112 108 102 96 91 88 83 79 76 73 69 66
70 72 73 76 80 82 83 85 87 88 89 92 96 100 102 101 102 103 108 113 116 120 122 121 122 120 115 114 112 109 106 106 103 100 96 91 86 80 77 75 72 69 66 63
71 75 78 81 83 85 86 87 89 93 97 100 100 99 100 104 106 110 115 119 121 124 123 119 116 113 111 110 111 108 105 101 96 91 86 81 79 77 73 69 68 66 63 60
78 81 81 82 84 86 90 94 97 99 98 98 101 103 106 109 114 117 120 123 122 119 117 113 114 112 110 107 105 102 97 91 86 84 81 77 73 70 69 67 64 62 60 57
80 81 83 87 91 94 95 94 95 98 101 102 105 109 113 116 119 120 119 116 113 109 109 109 109 107 104 101 97 90 86 84 81 78 74 71 69 67 65 64 60 58 56 54
83 87 91 93 92 93 95 97 99 102 107 110 112 115 119 119 116 112 111 109 109 105 108 108 105 104 97 90 86 83 80 75 72 70 68 67 65 63 61 59 57 55 53 52
90 92 92 93 94 96 100 103 107 110 113 113 114 115 116 113 112 110 110 109 106 104 103 102 96 89 86 84 81 77 73 72 70 67 64 62 60 58 57 56 55 54 53 51
90 92 93 96 100 105 107 109 110 110 111 111 111 112 110 110 110 108 108 106 104 101 96 91 87 83 80 77 74 73 70 67 66 64 61 59 58 57 56 55 53 52 50 49
93 96 100 104 107 109 108 109 110 110 109 108 108 108 110 107 105 104 103 102 96 90 86 81 79 75 72 71 69 69 67 65 64 61 59 57 56 55 53 51 49 48 48 47
100 104 106 107 106 105 106 108 106 106 107 109 112 111 107 106 107 102 94 89 86 82 78 73 71 68 67 66 65 64 64 63 62 60 59 57 55 53 52 51 50 48 46 45
104 104 103 104 105 105 105 105 106 108 111 113 110 104 101 99 93 90 87 84 80 76 73 70 68 66 64 63 62 61 59 60 60 59 56 54 54 53 51 49 48 47 45 43
100 103 103 104 106 104 105 107 110 111 111 108 104 99 93 89 86 84 81 78 75 71 69 68 67 65 63 61 59 59 57 56 55 55 54 50 48 48 47 46 46 45 44 43
102 102 104 104 105 107 109 108 106 104 102 100 94 88 86 83 80 78 76 73 71 69 68 67 65 63 61 59 58 56 55 54 53 50 49 47 45 44 43 43 42 42 41 40

GFSNGP_250_spd_042.txt.gz
Wind_Speed
30 30 30 29 30 29 29 31 25 30 24 27 30 29 36 39 41 44 48 48 52 53 55 57 59 61 64 70 76 80 84 87 87 90 92 96 95 93 93 96 100 107 110 111
30 30 31 29 30 30 30 28 26 27 25 33 33 35 40 40 44 45 50 50 53 57 59 59 58 62 68 72 76 81 84 85 90 93 98 98 96 96 99 101 107 111 112 114
31 30 28 30 32 30 29 28 28 30 33 35 38 39 43 48 49 52 56 57 57 58 62 64 66 69 75 76 79 81 86 90 93 98 99 98 97 100 103 107 112 114 114 116
31 30 29 34 31 31 31 33 32 33 36 42 42 46 48 50 54 58 56 60 61 63 66 71 75 75 78 79 82 86 89 92 99 99 99 100 101 105 109 114 116 116 117 112
32 32 34 35 33 35 35 36 36 40 43 46 48 51 51 55 58 59 61 62 65 66 70 74 78 79 81 85 88 88 91 99 101 101 100 102 107 113 116 116 115 115 115 112
35 35 35 35 38 38 39 38 41 46 47 49 52 54 56 57 58 61 63 65 66 70 75 78 80 82 87 90 91 92 99 104 103 102 104 109 114 117 117 117 117 113 110 110
34 36 37 35 40 41 42 45 45 48 50 53 56 55 58 60 63 63 66 66 72 76 78 81 85 89 93 94 94 99 106 105 104 108 112 116 120 121 122 123 117 115 113 110
33 34 36 40 41 44 44 46 49 51 54 53 56 60 60 62 66 68 69 72 77 79 84 89 92 95 95 95 100 106 104 104 107 112 118 122 121 122 122 116 115 113 110 106
36 34 38 40 41 44 49 51 52 53 54 56 58 60 63 64 69 74 75 77 80 84 89 92 94 94 96 101 107 105 105 107 113 119 122 121 122 120 114 115 116 112 108 101
41 40 40 44 42 46 50 50 52 54 52 57 61 64 68 72 73 77 80 83 86 89 93 94 95 98 104 107 105 106 109 115 120 123 122 121 115 112 113 110 107 106 101 96
46 44 47 42 44 52 50 51 52 55 58 64 68 71 74 77 80 83 86 89 92 94 94 97 102 106 106 106 108 113 117 121 124 122 119 113 113 112 112 111 104 99 94 88
46 48 49 44 48 51 52 53 58 63 67 71 73 76 81 84 86 88 92 94 95 97 101 105 105 104 107 111 115 119 123 123 120 118 113 112 111 109 107 105 100 93 88 82
48 51 50 51 51 55 57 62 66 70 73 76 79 84 86 89 91 93 94 95 100 104 107 104 106 109 113 118 122 123 118 115 113 112 111 109 104 102 98 96 92 87 84 81
54 54 54 55 57 61 65 69 72 75 78 82 85 88 91 92 93 94 100 105 107 104 104 107 112 118 122 123 121 119 116 113 110 110 110 104 101 99 92 88 85 83 79 75
59 59 58 62 65 68 71 74 77 79 82 86 88 91 92 93 97 103 106 104 104 107 110 115 119 123 123 121 117 114 113 111 110 108 107 101 95 91 88 85 80 76 73 70
62 64 66 68 71 73 75 76 79 83 87 89 90 91 96 101 104 102 103 106 111 116 118 120 121 121 120 119 115 113 108 106 102 97 93 88 87 85 82 81 78 72 70 68
66 68 70 73 75 76 79 82 85 88 89 90 94 99 103 102 103 104 109 114 118 120 120 120 120 116 114 110 107 105 102 99 95 90 87 84 82 79 75 73 71 71 66 64
69 72 74 76 78 81 84 87 88 90 92 97 101 102 103 104 107 113 118 120 120 121 120 115 112 108 106 108 107 102 97 93 90 87 85 81 77 75 71 69 67 65 63 60
73 74 76 79 83 85 88 90 92 95 99 103 103 104 106 110 116 120 120 120 119 116 112 111 106 106 109 106 102 97 92 89 86 82 79 77 73 71 68 66 63 61 59 59
75 79 82 84 87 89 91 93 97 101 103 104 106 109 113 118 122 121 119 116 112 111 108 103 101 104 102 97 95 92 89 84 81 77 75 71 70 66 64 63 61 60 59 58
81 83 85 88 89 93 96 99 104 104 106 107 111 115 120 123 122 119 115 112 112 107 104 104 102 100 96 93 90 86 82 79 77 75 72 69 66 64 62 61 60 58 56 54
83 85 88 92 95 99 103 104 105 107 110 114 118 120 120 119 116 113 112 110 106 105 104 101 98 95 91 87 83 79 75 74 73 71 69 67 65 63 61 60 57 56 54 53
87 91 94 99 102 102 103 106 109 114 117 116 116 116 115 113 111 109 110 107 106 105 101 97 93 89 85 81 77 74 72 70 68 66 65 64 64 62 60 58 57 56 54 51
95 98 99 99 101 105 109 112 113 114 115 112 112 110 110 109 110 107 104 102 101 97 93 90 87 83 79 76 74 71 68 66 65 63 63 63 61 60 57 56 54 52 50 49
95 98 100 104 107 109 110 111 109 108 109 109 108 107 108 106 103 102 101 99 95 91 88 84 81 78 76 73 70 67 66 64 63 61 59 58 57 56 53 50 49 47 45 44
99 103 106 105 106 107 106 106 107 107 106 106 106 104 104 104 102 99 95 92 89 86 82 79 77 75 73 70 68 66 63 62 60 58 57 54 52 51 49 45 44 44 42 41
101 101 102 103 105 105 106 106 104 104 105 104 104 104 102 99 95 92 89 87 84 81 78 76 73 71 69 68 65 63 61 59 58 55 53 52 51 48 45 44 41 40 41 39

GFSNGP_250_spd_045.txt.gz
Wind_Speed
32 31 30 29 30 30 31 34 37 35 35 31 31 27 28 33 37 43 42 46 45 46 51 54 55 56 59 61 65 70 74 76 76 78 83 87 93 93 96 101 108 105 103 106
35 34 30 32 35 34 33 34 37 37 30 33 26 29 32 36 41 41 45 48 51 52 55 59 60 61 63 66 69 74 78 79 80 85 91 94 96 98 101 109 108 106 108 113
35 33 33 33 36 32 36 36 35 31 26 28 33 36 36 40 44 49 51 54 58 60 61 61 64 67 68 72 74 78 79 83 89 94 97 98 99 103 109 110 108 109 113 119
36 34 32 35 34 35 33 32 29 30 31 34 38 40 42 43 47 49 52 57 61 62 64 67 69 72 73 75 78 79 84 89 94 99 99 99 104 110 111 109 112 116 121 123
34 33 34 33 36 34 31 31 32 34 36 37 42 43 46 49 51 54 57 59 60 63 67 69 71 75 78 80 81 85 90 94 96 97 101 107 110 109 110 114 120 123 122 121
34 35 33 34 35 36 32 31 37 39 41 44 46 48 50 52 54 57 59 60 64 67 70 73 76 79 82 85 89 93 96 99 99 104 109 111 109 111 116 121 122 123 120 116
35 34 33 35 36 36 37 38 43 43 45 47 49 51 52 55 56 57 60 63 65 68 73 78 81 84 89 92 94 97 99 101 106 110 109 109 113 120 123 123 121 118 116 113
38 36 34 33 35 35 41 44 43 44 46 49 53 55 55 54 58 61 62 66 70 74 78 81 86 89 93 96 98 99 103 109 109 107 110 115 120 123 125 122 116 114 114 112
40 41 37 32 34 41 46 43 43 45 49 53 54 56 58 58 59 63 68 73 77 81 85 89 91 93 96 97 99 105 108 105 107 113 118 122 123 122 119 116 113 111 108 106
44 43 39 39 40 43 47 47 47 49 53 55 57 59 61 63 66 69 72 77 82 86 90 93 96 97 98 103 108 106 105 109 116 120 122 121 120 117 113 113 111 107 101 96
46 43 44 43 45 48 50 50 51 54 56 58 60 62 65 69 73 77 79 82 86 89 92 95 96 98 105 107 104 106 111 118 123 121 119 118 115 113 113 108 105 101 96 89
45 45 46 48 49 50 52 52 54 57 59 62 64 67 71 75 80 83 85 88 90 93 95 96 99 106 106 106 108 113 120 124 121 118 118 114 112 110 111 105 100 94 88 82
48 47 47 49 51 52 53 55 58 61 63 66 70 73 77 80 83 86 88 91 94 96 97 102 108 107 108 111 115 121 126 121 117 114 112 110 109 105 100 97 96 92 86 81
52 51 52 54 55 56 57 60 62 65 69 72 75 78 81 83 87 89 92 94 96 98 102 108 109 111 113 118 122 126 121 118 114 112 108 105 103 97 92 89 86 87 85 77
56 56 57 58 60 62 63 66 68 72 74 76 79 81 85 89 90 93 96 98 100 103 109 110 111 115 120 126 126 122 117 111 109 104 101 101 94 89 86 83 80 77 77 75
60 60 60 60 63 66 69 71 74 76 78 80 83 87 89 91 94 96 99 102 105 110 110 113 117 123 127 125 119 115 112 109 104 99 96 91 89 83 79 77 74 71 71 70
64 65 66 66 69 71 72 74 76 79 81 85 87 89 92 94 97 100 104 107 109 110 114 119 123 125 124 118 114 111 106 101 99 96 93 89 85 80 76 75 71 67 66 65
67 67 67 68 71 73 74 77 79 81 84 87 90 93 95 98 101 105 109 108 111 117 121 123 124 121 117 114 111 106 101 97 92 89 86 84 80 78 73 72 72 65 63 61
64 66 67 69 71 74 77 80 82 85 88 91 94 96 98 101 106 109 109 112 118 121 123 123 119 116 112 111 106 101 97 91 89 87 83 80 78 76 71 68 68 65 61 59
68 70 73 75 77 79 82 84 86 89 92 94 96 99 102 108 108 110 114 119 119 121 119 116 113 109 108 103 100 96 91 88 84 80 78 77 75 74 70 66 66 64 61 59
71 72 74 77 80 82 85 87 89 92 94 97 102 107 108 108 112 116 119 120 119 119 116 112 108 104 101 99 94 91 88 84 80 77 75 73 70 69 69 66 62 61 60 58
74 78 81 83 85 87 89 91 94 97 101 105 106 105 109 113 117 118 118 118 116 113 110 106 103 99 96 93 90 86 82 80 77 74 70 68 67 66 64 64 62 59 57 56
84 87 89 90 91 94 96 98 101 103 101 101 107 111 113 116 116 115 116 114 112 109 106 102 97 95 92 89 85 81 79 78 73 70 68 66 64 62 60 59 58 56 54 53
87 88 90 93 96 98 99 96 98 102 106 108 110 109 111 113 114 113 111 108 105 103 98 92 91 91 87 83 81 79 76 74 71 69 66 63 61 59 58 56 54 52 50 49
87 88 89 90 92 94 98 101 103 106 108 107 107 108 108 108 109 108 104 102 100 95 91 89 88 86 83 80 78 75 73 71 68 65 63 61 59 57 55 53 51 48 45 43
86 89 92 95 98 101 103 105 106 103 104 105 104 105 106 104 102 102 100 95 92 90 88 87 84 81 79 76 75 73 71 68 65 62 60 58 56 54 51 48 45 43 42 41
93 96 99 101 103 103 102 102 102 101 102 102 102 101 100 99 99 96 92 90 88 86 84 82 80 77 75 73 72 69 67 64 62 60 58 55 52 49 47 44 42 42 41 39

GFSNGP_250_spd_048.txt.gz
Wind_Speed
36 35 29 24 28 30 28 29 31 36 34 33 29 26 27 25 30 37 32 33 36 39 41 45 48 52 55 58 59 62 66 69 70 72 76 80 84 88 93 95 96 101 106 108
28 31 29 26 32 34 28 31 35 36 37 35 32 26 28 33 33 31 35 38 41 43 47 50 52 55 56 59 63 65 67 71 75 79 83 86 90 94 97 98 104 107 102 107
34 34 37 30 37 33 35 34 36 37 37 38 32 30 30 31 33 37 40 43 48 50 50 53 55 59 62 65 66 68 72 77 82 87 89 93 96 97 101 107 105 104 111 117
31 33 29 37 32 35 36 34 36 37 35 33 30 29 31 34 37 41 45 49 52 53 54 57 60 62 65 67 71 75 79 83 88 91 94 95 98 104 107 103 106 112 119 118
30 30 30 34 34 36 33 34 35 34 33 33 32 33 35 38 42 46 50 53 54 57 60 61 62 65 68 72 76 80 85 89 92 96 96 98 105 106 105 108 113 120 121 119
29 30 30 37 34 35 33 35 36 36 36 36 36 37 39 43 47 51 53 54 58 60 61 65 68 71 74 79 83 88 92 94 97 98 99 105 108 107 110 114 119 125 120 116
31 30 31 36 34 34 37 40 38 39 39 40 42 42 44 49 52 54 56 58 60 63 66 69 72 76 80 84 89 92 94 96 97 100 106 109 108 111 115 121 124 120 115 114
33 33 31 36 36 39 39 40 38 39 42 43 45 47 49 51 55 57 59 61 63 67 69 73 76 81 85 89 92 94 97 98 100 104 110 109 112 116 122 123 118 116 113 113
34 31 34 39 42 43 44 41 40 42 43 45 48 50 52 54 57 60 62 64 68 71 75 78 82 86 89 92 95 97 98 101 104 109 110 113 117 123 123 119 115 113 113 112
36 35 37 40 45 45 46 46 46 47 47 50 52 54 56 58 60 62 65 69 72 75 79 84 88 90 92 95 96 98 101 104 109 109 114 119 123 123 118 115 114 113 110 108
44 40 41 42 46 48 48 49 51 52 55 56 58 60 61 62 64 66 69 73 76 80 84 88 90 92 95 96 98 100 105 108 109 114 119 123 122 118 113 114 112 108 106 102
47 44 44 44 44 47 49 51 53 56 57 60 61 63 65 68 70 72 74 77 81 85 88 91 92 95 96 99 100 106 109 110 115 119 122 122 118 113 114 111 109 107 102 96
49 48 48 47 48 50 51 52 53 55 58 61 65 67 69 71 73 77 79 82 85 88 91 93 95 97 99 101 106 108 109 114 120 122 123 121 116 113 108 104 104 102 97 93
53 51 50 50 52 54 56 58 59 61 63 66 68 71 73 76 78 81 84 86 89 92 94 95 98 100 101 106 108 109 114 118 119 121 118 114 111 108 104 97 89 89 90 88
53 52 53 54 55 55 58 61 63 65 67 69 71 74 77 80 82 84 87 90 92 93 95 98 100 102 107 107 110 114 117 120 120 119 116 111 107 102 97 91 87 82 79 81
54 55 56 57 58 59 61 64 65 68 71 73 76 78 80 81 84 87 90 92 94 95 98 100 104 108 107 110 114 117 119 120 120 115 110 106 102 95 91 87 82 77 75 74
57 58 59 60 61 63 65 67 70 72 74 75 77 79 82 85 88 90 92 94 96 98 101 106 107 107 111 114 116 117 118 117 112 109 106 100 95 90 86 82 78 72 70 69
61 61 61 61 62 64 67 70 72 74 75 78 82 85 87 88 91 92 94 97 100 103 105 105 108 111 114 115 116 115 115 112 109 104 98 94 89 84 80 77 72 68 68 68
60 61 63 65 67 69 71 73 75 78 82 85 87 87 89 92 94 98 100 103 105 104 105 110 112 113 115 115 115 113 110 108 103 98 92 87 82 79 76 73 70 67 65 65
67 67 68 69 71 73 76 79 82 84 86 87 89 92 95 99 103 103 102 102 103 107 109 111 112 112 112 113 109 107 105 101 96 91 86 82 78 74 74 72 69 65 62 61
71 71 71 73 76 78 80 82 85 87 90 94 97 100 104 102 100 101 101 104 108 110 110 110 110 111 109 106 105 103 100 95 90 84 81 78 74 72 71 69 66 63 59 58
70 71 73 75 78 81 84 88 91 95 98 99 99 97 98 100 101 103 106 109 110 110 109 108 109 106 103 103 101 97 93 89 83 79 77 74 71 69 67 65 63 62 60 56
77 78 80 83 86 90 92 92 92 93 95 95 95 97 100 103 107 109 111 108 108 107 107 106 103 102 100 99 95 90 86 82 78 76 74 71 69 67 64 62 60 57 55 52
80 82 85 85 85 85 87 89 90 92 95 98 99 102 105 109 110 108 107 106 106 106 103 100 99 97 96 92 88 84 80 77 75 74 71 68 66 64 61 59 56 53 50 48
76 79 81 83 84 87 90 93 95 98 100 103 105 107 107 108 108 107 105 104 103 100 99 97 95 92 89 85 82 78 77 74 72 70 68 66 63 61 59 56 52 49 47 44
82 85 88 90 92 94 97 98 100 102 104 104 104 104 105 105 103 102 101 97 96 95 93 92 89 86 83 80 77 76 75 72 69 67 64 62 60 57 55 51 48 46 44 42
89 91 93 94 95 96 97 97 98 101 102 101 102 103 101 99 98 95 93 94 92 90 88 86 84 81 77 76 75 73 70 68 66 63 61 59 57 54 51 48 46 44 41 39

GFSNGP_250_spd_051.txt.gz
Wind_Speed
34 32 33 31 33 34 34 31 22 26 24 26 26 27 27 30 34 37 41 38 27 30 33 35 38 41 43 47 55 60 63 66 66 69 69 72 77 83 88 91 93 94 96 100
36 36 33 30 35 38 36 26 23 25 25 28 30 30 30 32 35 37 37 34 34 34 35 40 43 46 50 56 60 63 65 67 70 71 74 78 83 87 91 93 95 97 100 107
41 38 34 28 36 34 33 30 25 25 30 32 30 31 31 32 31 32 33 34 36 38 40 44 47 51 55 58 61 64 66 70 73 76 79 83 89 91 93 95 97 100 106 108
41 38 35 39 38 34 31 31 29 31 33 33 32 31 28 27 29 31 34 36 39 41 45 49 52 55 58 60 63 66 70 72 76 80 84 89 92 95 95 96 99 105 107 110
38 36 34 34 39 35 31 27 33 36 35 31 31 29 28 29 31 34 36 39 42 46 50 53 55 58 62 65 67 70 74 77 81 85 90 92 95 96 97 100 107 107 110 116
38 36 34 36 37 36 32 29 38 36 32 32 33 32 32 33 35 38 40 43 47 50 53 56 60 62 65 67 71 75 78 82 86 90 92 95 96 98 99 105 107 108 115 118
38 35 36 38 39 35 33 40 34 33 34 35 36 37 37 39 40 42 45 48 51 53 57 60 63 65 68 72 75 78 82 87 91 92 95 97 98 100 104 107 108 113 117 120
38 37 36 39 37 39 40 37 37 34 36 39 40 40 41 42 44 46 49 52 55 57 61 64 65 69 73 77 79 82 87 91 92 95 96 99 100 104 108 107 112 116 118 120
35 34 38 41 40 42 42 40 39 40 41 43 45 46 46 48 50 52 55 57 60 63 65 67 71 74 76 80 84 88 91 93 95 96 99 100 104 107 108 111 115 117 119 121
35 35 36 38 42 41 41 41 42 44 44 45 46 49 52 54 56 58 60 63 65 66 70 72 75 78 81 85 88 92 94 94 96 99 100 104 107 107 110 114 116 119 121 120
36 29 36 38 44 47 46 46 46 47 47 48 48 50 54 57 59 61 64 66 68 71 74 76 79 82 86 89 92 93 94 97 98 100 104 107 108 111 114 116 119 120 120 118
43 40 36 38 37 44 49 49 49 50 51 51 51 54 56 60 62 64 66 69 72 75 78 81 84 87 89 91 91 94 96 98 101 105 107 108 110 110 114 118 121 122 120 116
49 48 43 41 40 43 48 51 52 53 55 57 58 59 62 64 66 68 71 74 76 78 81 84 86 89 90 92 94 96 99 102 107 107 109 111 113 114 114 113 120 119 117 109
47 48 46 46 45 45 50 53 54 55 57 59 62 63 65 66 69 71 73 76 79 82 84 87 89 90 93 95 98 102 105 108 106 108 110 110 111 113 115 113 109 106 105 102
54 54 53 52 50 50 51 54 56 57 59 62 64 66 68 69 70 73 76 78 81 84 88 90 92 93 96 99 105 108 106 105 109 112 112 111 113 114 113 112 109 101 94 92
56 54 55 55 54 55 56 56 58 60 62 64 66 68 69 72 75 77 79 82 86 90 93 94 95 98 102 107 108 106 106 110 113 112 112 112 113 112 111 108 102 96 91 86
56 56 53 54 56 58 61 63 63 66 67 68 71 73 75 77 80 82 85 89 91 93 95 98 102 105 108 107 106 107 111 113 113 111 111 112 110 109 105 100 94 91 85 80
58 60 59 59 58 62 65 66 66 66 67 70 74 77 80 83 85 89 91 92 95 97 102 106 106 105 104 107 109 112 113 111 111 110 109 108 108 103 97 93 89 84 79 76
64 65 65 65 67 67 67 66 68 72 75 80 83 85 86 88 90 91 93 96 100 104 103 103 104 106 108 110 113 112 111 111 110 108 107 106 101 96 91 88 83 78 75 72
71 72 72 71 70 76 83 81 82 82 85 84 84 85 87 90 93 96 100 103 102 102 103 105 108 109 112 113 112 111 111 109 107 105 104 99 94 90 87 82 78 76 71 66
75 74 75 78 83 86 82 77 77 79 81 84 88 91 94 97 99 101 99 100 103 105 108 109 111 112 110 111 111 110 108 106 105 101 97 92 89 85 81 78 75 72 69 64
85 85 87 90 87 80 82 84 83 86 90 93 95 97 98 98 97 99 101 105 106 109 111 112 110 111 111 110 108 106 105 103 100 94 90 86 82 79 76 73 71 68 65 62
75 82 82 80 79 79 82 86 90 92 92 92 93 94 96 98 101 105 107 109 111 112 111 110 110 109 109 107 105 103 101 97 93 88 84 80 77 74 71 68 66 64 62 59
78 81 82 83 83 83 84 85 88 89 90 92 95 98 102 105 107 109 110 110 110 109 109 108 107 106 105 104 101 98 94 91 86 82 78 76 72 69 66 64 62 60 57 55
79 82 84 86 87 89 90 91 92 93 95 99 102 104 107 108 107 107 108 108 107 108 106 105 104 103 101 99 95 90 88 85 81 77 75 71 68 65 62 61 59 56 53 51
79 81 84 86 88 90 93 95 97 100 103 104 105 105 105 106 108 107 107 107 105 104 103 101 99 98 96 92 89 85 83 80 77 73 70 67 64 62 60 58 55 51 50 48
83 86 88 90 92 95 98 100 100 100 100 102 103 104 105 104 103 103 101 100 99 98 97 95 94 91 89 87 83 80 78 75 71 69 66 63 60 59 57 54 51 49 46 44

GFSNGP_250_spd_054.txt.gz
Wind_Speed
50 55 44 41 33 26 30 32 33 37 34 36 32 28 29 29 30 32 34 37 38 36 35 32 32 32 35 37 41 47 49 55 60 64 67 71 73 75 78 81 84 88 91 93
50 54 54 39 34 28 28 35 36 34 37 39 31 30 30 30 30 32 36 38 41 39 33 29 32 35 39 44 47 52 55 59 64 68 72 74 76 79 81 83 86 89 93 96
49 52 51 45 42 32 30 32 34 36 37 35 34 32 32 30 32 35 36 37 37 35 33 33 36 40 44 47 52 56 60 65 68 72 74 77 79 81 83 86 89 93 96 99
51 52 47 46 43 34 31 34 35 34 36 38 36 31 30 32 33 33 33 32 32 34 36 39 42 45 48 52 56 61 64 67 70 74 76 77 79 82 86 89 94 97 99 102
52 54 50 51 48 40 32 33 37 36 34 32 31 31 33 34 32 31 32 33 34 36 39 42 46 49 53 58 61 63 66 70 73 75 77 79 82 87 91 95 95 98 101 102
52 57 53 50 47 42 36 35 38 33 34 33 35 35 35 36 34 33 35 36 38 40 43 46 49 54 57 59 63 66 70 72 74 77 80 84 88 92 94 95 99 101 103 108
60 56 54 53 48 41 38 44 35 36 35 36 35 35 36 38 38 38 38 40 41 44 46 50 53 56 59 63 66 70 72 74 77 80 84 89 93 95 96 99 101 104 107 110
59 58 51 51 45 42 39 42 37 37 38 39 40 41 39 38 41 43 45 46 48 50 52 55 58 61 65 68 70 72 75 78 81 85 89 92 93 95 98 100 104 109 111 108
60 55 50 45 44 45 43 39 37 37 40 42 43 43 42 44 46 47 49 51 54 56 58 60 62 65 68 70 73 75 78 81 85 89 92 93 95 97 100 106 110 111 109 112
56 52 51 46 45 42 36 33 36 39 40 40 41 43 45 46 48 50 51 53 55 57 59 62 64 68 70 72 76 79 82 86 89 92 94 96 97 101 106 111 112 110 113 117
56 51 48 49 47 43 42 37 35 39 41 44 47 48 48 49 50 52 55 57 59 61 64 67 68 70 72 76 79 82 86 89 91 94 96 99 103 108 111 113 112 114 118 118
55 54 52 48 47 50 48 44 43 38 40 42 46 50 52 54 54 56 58 61 63 65 67 69 71 74 77 80 83 85 89 92 95 98 100 104 108 109 111 113 116 122 122 121
55 54 53 49 53 56 55 51 49 49 46 46 47 50 54 56 59 61 62 64 66 70 71 73 75 78 81 83 86 90 94 96 99 102 106 108 108 108 109 112 119 119 119 118
58 56 54 56 58 56 59 59 59 58 53 52 53 56 58 61 63 66 67 69 72 74 76 79 81 84 86 90 93 95 96 99 104 107 107 108 110 113 114 115 111 111 115 115
58 57 60 59 59 61 58 61 64 59 59 57 56 57 62 65 67 70 72 75 77 78 80 83 87 90 93 94 96 98 102 106 108 108 109 113 115 116 117 115 111 108 106 108
59 58 60 61 60 61 63 64 65 65 60 59 58 63 67 71 74 76 78 78 79 82 89 92 91 91 93 97 101 104 107 106 108 111 115 116 118 116 114 110 109 108 105 99
60 60 56 58 58 61 63 67 68 65 60 61 64 64 65 67 70 76 79 82 88 91 91 90 93 96 100 103 105 105 106 110 114 116 117 118 115 113 110 108 106 104 99 94
56 56 58 61 65 68 69 71 69 67 67 70 73 77 73 74 81 81 80 84 87 89 91 96 101 102 102 103 105 108 112 115 116 117 116 114 113 110 108 104 101 96 92 88
49 50 51 54 59 64 66 69 72 72 76 76 77 75 78 85 91 86 87 91 93 95 99 102 102 102 103 107 110 114 115 116 117 116 114 112 110 107 104 100 95 90 86 83
58 57 59 63 66 72 76 78 81 81 79 78 82 87 91 92 89 90 92 94 96 99 100 101 103 105 109 113 115 117 116 117 117 114 112 109 106 104 100 94 89 85 82 80
65 69 72 73 76 80 79 80 83 83 83 85 87 87 91 93 92 92 96 97 96 100 104 105 107 112 115 116 116 116 116 115 113 110 108 105 104 99 93 88 84 82 79 75
71 74 73 74 74 73 73 73 76 79 83 89 93 94 94 94 97 97 99 102 104 106 108 110 113 116 116 115 115 114 112 110 108 107 105 102 97 92 87 84 81 78 74 71
61 63 65 67 68 70 73 77 81 85 90 92 93 95 97 97 99 101 103 105 106 109 112 115 114 113 114 113 112 111 108 107 106 104 100 94 89 86 83 80 77 74 70 66
64 66 67 70 73 76 80 83 85 87 90 91 92 94 96 98 99 102 105 108 111 112 112 111 111 111 111 110 108 106 105 104 101 96 91 88 84 82 78 75 72 68 64 61
69 71 74 77 79 82 85 87 89 90 91 94 96 97 100 102 104 106 108 109 108 108 109 109 108 108 108 107 106 103 100 96 93 89 86 83 80 77 73 69 66 63 60 56
75 78 81 83 84 86 87 89 91 93 95 97 99 100 102 105 107 107 106 105 106 107 106 106 106 105 104 102 100 96 92 89 87 83 81 78 75 72 68 64 62 59 56 52
81 83 84 85 87 89 91 93 95 96 98 100 102 102 103 103 103 103 104 104 104 104 104 104 102 100 98 95 92 89 86 84 81 78 76 73 69 66 62 59 58 55 52 48

GFSNGP_250_spd_057.txt.gz
Wind_Speed
40 40 41 42 43 48 34 28 26 39 38 39 37 37 36 34 36 37 35 36 38 39 37 36 39 40 38 36 39 43 42 45 49 52 55 60 65 68 71 75 80 85 87 89
41 42 42 41 49 46 41 32 27 33 36 39 40 39 39 37 36 36 36 37 38 39 41 43 43 40 40 41 45 45 47 49 53 56 60 64 66 69 74 78 82 85 88 90
44 44 43 39 50 51 44 39 32 31 34 33 38 41 43 39 34 35 36 37 37 38 40 42 42 41 38 40 43 46 49 52 55 59 63 66 70 74 76 80 84 85 88 91
46 47 42 48 53 54 47 43 36 30 36 36 36 37 39 42 38 37 38 38 38 39 39 40 40 41 41 43 45 48 51 55 59 63 66 70 73 76 79 82 84 86 90 94
49 48 43 41 54 51 50 44 42 37 32 31 33 32 34 37 39 39 38 39 38 38 40 42 43 44 45 48 50 53 57 61 63 66 69 72 76 79 81 83 85 90 94 97
50 48 39 41 47 51 49 46 42 32 30 33 33 35 36 38 40 39 40 41 41 40 40 42 45 46 48 51 54 58 60 63 66 70 73 76 77 79 82 85 90 93 96 101
50 46 41 41 48 56 47 47 49 41 32 34 36 37 39 40 40 41 39 40 42 43 45 47 48 50 52 56 58 61 64 67 70 73 74 77 79 82 86 89 93 96 99 104
49 48 40 47 46 48 51 52 43 42 36 35 39 40 40 41 42 43 45 46 47 48 49 50 52 55 57 59 61 64 66 69 71 73 76 79 83 87 90 93 96 100 102 105
52 50 47 48 49 48 53 51 46 40 36 38 42 42 42 43 44 46 46 46 48 50 51 53 54 55 57 60 63 66 69 71 73 75 78 82 87 90 94 98 100 103 104 107
55 49 46 46 49 53 54 50 45 41 41 41 42 44 44 44 45 47 49 50 51 53 54 55 56 59 61 64 66 69 71 73 76 79 83 87 91 95 98 100 103 105 108 110
44 46 52 52 52 53 53 49 46 46 47 47 47 50 51 52 52 52 54 55 55 55 57 59 61 63 65 68 70 73 75 78 80 84 89 93 94 96 99 104 106 107 109 113
49 53 55 55 55 57 54 54 49 48 52 55 54 55 57 57 55 56 57 55 57 58 59 61 64 67 69 73 76 79 80 81 84 91 92 92 96 101 104 106 108 112 115 117
54 58 58 59 58 61 59 58 52 51 54 58 58 58 59 59 59 61 61 65 65 62 62 65 69 71 74 78 81 83 84 88 93 94 92 99 101 101 104 107 113 117 119 117
59 60 59 63 64 64 64 61 53 52 55 59 58 61 65 67 65 68 68 67 63 61 64 67 67 72 78 80 83 86 89 90 92 94 99 100 102 104 105 110 114 117 117 117
62 63 65 67 66 65 64 58 57 56 59 61 61 64 68 70 69 70 71 68 65 68 70 74 78 79 85 88 86 87 90 92 95 98 99 102 106 107 111 114 114 112 111 109
64 69 70 67 66 64 61 59 59 58 59 63 64 66 71 71 71 71 75 74 75 77 79 82 84 87 90 87 87 88 92 97 99 101 106 109 110 113 115 115 113 110 106 100
70 70 66 65 64 62 56 52 54 57 59 63 69 73 74 75 78 80 77 77 79 81 85 84 87 89 89 92 93 96 101 102 106 109 111 112 113 115 115 113 110 105 101 97
67 65 61 61 59 54 46 47 49 51 54 59 64 69 72 73 76 79 82 85 89 85 84 85 87 92 95 96 99 105 106 108 109 111 113 114 115 114 112 110 105 101 98 94
59 59 56 57 51 47 49 50 51 56 61 66 71 76 80 78 81 84 85 81 81 83 86 90 96 99 99 103 105 105 107 109 111 113 114 115 113 111 108 104 101 97 92 89
55 55 54 53 51 50 51 57 61 63 66 68 70 73 78 80 77 76 80 83 86 90 95 98 99 102 104 104 106 107 110 112 113 115 114 112 111 107 105 101 97 92 88 84
52 55 52 49 52 55 61 64 68 68 70 74 78 79 79 80 81 83 87 91 95 99 101 103 105 104 106 108 109 111 112 114 115 112 111 109 106 104 100 97 92 87 84 80
51 55 57 56 56 61 66 69 71 74 76 75 76 78 81 84 88 91 94 97 100 103 104 104 106 108 110 110 112 114 114 112 110 108 106 105 103 100 95 90 86 83 80 77
61 64 60 64 67 70 71 71 73 78 82 81 82 84 87 89 92 95 99 100 101 103 105 107 109 110 111 113 113 111 110 108 107 106 105 101 97 93 88 85 82 80 77 73
61 62 65 69 74 77 79 82 85 86 84 84 86 88 91 94 97 98 100 102 104 106 108 108 110 111 111 110 108 107 106 105 104 102 98 94 90 86 84 81 79 75 71 67
66 68 72 76 80 85 87 90 90 89 90 90 91 94 96 98 99 100 102 104 106 107 108 109 108 107 107 106 105 104 103 100 97 95 91 88 86 83 80 76 72 69 66 63
76 75 78 82 85 86 88 90 91 91 93 95 96 98 99 100 102 103 105 106 106 105 105 106 105 105 103 102 100 98 95 94 92 89 86 84 81 78 75 70 66 63 61 59
80 84 84 83 85 86 88 90 93 95 97 97 98 99 101 102 103 104 102 102 103 103 103 103 101 99 98 97 95 93 90 88 86 84 81 78 75 71 67 64 61 60 57 54

GFSNGP_250_spd_060.txt.gz
Wind_Speed
39 37 33 33 37 36 34 34 32 36 32 31 33 41 42 41 40 38 38 39 39 39 40 39 39 41 42 43 45 45 44 44 44 50 52 53 58 60 62 67 71 76 79 81
39 38 37 35 39 38 36 36 36 38 35 32 29 34 41 42 40 41 38 40 42 41 41 42 42 43 44 46 43 40 47 49 50 52 54 57 60 63 67 71 74 77 79 83
42 40 36 38 40 39 38 37 36 39 37 35 28 30 37 38 39 40 41 42 44 44 44 44 45 45 45 46 45 45 44 44 48 52 56 60 63 66 70 73 75 78 82 86
41 40 35 42 41 43 38 37 39 43 33 33 30 29 34 35 36 40 45 46 46 47 45 44 45 44 45 46 46 47 48 50 51 54 57 61 65 68 71 74 78 82 86 88
40 41 38 39 45 44 43 40 46 38 36 35 36 31 33 38 39 41 42 43 43 44 45 45 46 45 46 46 48 51 53 55 57 60 62 64 67 70 74 78 81 83 86 89
42 43 37 42 45 47 49 45 48 41 38 38 35 35 33 36 40 40 39 41 43 45 46 45 45 46 47 48 50 52 55 57 60 62 65 67 70 73 75 79 81 84 87 90
45 41 37 43 47 48 47 52 46 47 42 41 38 37 35 38 40 42 42 42 44 46 47 46 47 49 51 52 53 55 57 59 60 62 65 68 72 75 78 81 84 86 89 91
44 41 35 46 48 48 49 51 47 43 42 44 41 41 40 39 44 47 46 45 46 47 49 49 51 52 52 54 56 58 59 61 63 66 69 72 75 79 83 85 87 89 91 97
43 41 45 48 51 50 48 44 43 44 44 45 44 43 44 45 46 48 50 49 49 50 51 51 53 55 56 59 62 63 63 64 67 69 70 72 76 81 84 87 89 92 96 99
49 48 50 51 51 47 43 43 45 45 45 47 47 47 49 50 53 52 50 51 54 54 54 55 57 60 64 66 65 66 66 67 68 70 75 79 81 85 89 92 94 95 97 100
47 48 51 50 49 46 47 47 48 51 50 50 50 51 52 51 55 55 54 54 56 59 59 60 59 59 63 67 71 71 68 71 71 75 79 85 88 91 92 92 94 96 98 101
48 53 53 52 52 50 51 51 53 54 55 57 57 56 54 51 53 56 56 57 59 61 59 62 66 67 69 71 71 68 69 73 76 82 87 92 95 93 94 93 93 98 101 104
51 53 52 52 54 56 56 56 57 59 59 60 60 57 56 53 52 56 59 62 62 62 65 68 68 70 72 69 72 74 78 82 84 90 94 96 96 97 97 95 100 106 108 108
53 54 55 57 57 59 59 61 62 63 64 66 62 62 58 55 55 57 61 63 65 69 71 70 73 74 74 77 76 79 83 86 89 92 93 95 96 97 98 102 106 106 107 111
58 57 58 60 60 61 62 63 65 65 67 68 63 62 56 57 57 58 61 65 68 71 74 77 79 78 80 81 84 87 91 94 96 93 94 95 97 100 104 105 106 107 110 111
60 60 61 62 63 64 66 68 70 70 71 66 63 56 53 52 54 56 59 62 66 68 70 73 75 77 81 84 89 93 93 88 90 93 96 99 103 104 104 106 108 109 110 110
64 63 66 67 67 69 70 74 74 72 65 64 57 55 50 52 53 57 63 68 73 70 75 77 80 82 82 84 82 83 89 93 95 99 103 104 104 106 107 108 110 111 110 108
66 67 67 69 72 73 75 74 72 70 65 60 56 52 52 54 57 60 64 68 75 77 73 74 74 76 80 84 89 94 97 100 103 104 104 106 107 107 109 110 111 109 108 105
68 70 72 73 74 74 74 73 72 69 63 57 57 57 59 62 67 68 67 73 77 79 82 86 90 93 94 97 101 102 104 106 105 106 107 107 109 111 112 111 109 107 103 98
73 72 72 74 75 76 73 67 66 63 60 59 59 62 65 69 71 75 77 79 82 86 89 92 95 97 100 103 104 106 106 106 107 108 110 111 112 111 110 109 106 100 95 91
75 74 76 77 74 72 67 65 61 62 64 67 69 70 71 74 80 82 83 89 92 95 97 99 101 103 105 107 107 107 108 109 110 111 111 112 111 110 108 103 98 94 90 85
75 75 75 70 66 65 67 66 61 64 67 71 74 78 83 86 87 90 92 94 96 102 103 104 107 108 109 108 108 109 110 111 110 111 112 110 107 104 100 96 92 88 83 80
75 71 69 68 68 69 67 68 70 72 75 77 80 83 83 86 91 95 99 102 103 106 109 110 109 110 110 110 110 111 110 110 111 109 107 104 100 96 92 89 85 82 79 76
70 69 70 70 72 70 68 68 71 74 78 78 80 84 86 90 95 100 102 106 108 108 109 110 111 111 110 110 110 109 109 109 106 103 99 95 92 89 86 84 81 78 75 71
71 71 72 72 69 73 76 76 79 84 85 87 90 94 98 100 103 105 104 107 108 108 109 109 109 109 109 108 107 106 104 100 97 95 92 90 87 85 82 80 77 73 70 67
70 72 72 71 74 77 79 82 84 88 91 94 95 98 100 103 104 105 105 106 106 106 106 106 106 105 105 103 101 98 95 93 90 89 88 86 83 81 77 74 71 69 66 63
72 76 77 79 81 84 87 88 92 97 98 98 98 99 101 102 102 102 103 103 102 102 103 103 101 97 95 92 90 88 87 86 85 84 81 79 76 74 72 70 67 63 60 57

GFSNGP_250_spd_063.txt.gz
Wind_Speed
50 41 32 33 37 36 33 33 33 34 35 35 26 18 19 23 32 42 45 44 45 44 45 44 44 42 42 41 41 43 44 44 44 45 47 50 53 55 58 58 61 64 68 72
50 43 34 35 39 38 35 35 33 36 37 34 34 27 24 26 31 32 38 44 46 45 45 46 46 46 45 44 45 45 46 46 47 50 50 50 52 55 58 62 64 66 69 74
48 46 38 34 43 39 39 37 35 35 39 37 39 35 30 28 28 34 36 38 39 43 45 45 48 49 49 48 48 47 48 48 48 49 52 52 54 56 58 61 64 67 71 74
50 47 39 45 42 41 40 37 37 37 39 38 40 36 35 32 31 31 34 35 37 39 44 48 48 46 45 46 48 50 50 49 49 50 52 54 56 59 62 65 67 70 73 76
51 47 42 43 45 44 41 40 42 37 38 42 40 37 37 36 36 34 35 40 42 45 48 49 48 45 45 47 49 49 48 48 50 52 54 57 59 61 63 66 68 71 74 78
51 47 42 47 50 48 44 40 44 37 40 45 40 37 36 39 36 35 36 38 45 48 50 50 48 48 47 48 49 50 50 52 54 56 58 60 63 65 67 69 71 75 75 78
52 47 46 48 52 51 41 50 43 42 43 42 40 39 39 40 37 37 38 40 45 49 52 53 52 51 51 52 53 55 56 57 59 60 62 66 70 71 71 71 71 74 79 83
53 48 45 50 56 48 48 48 49 44 42 42 41 43 42 42 40 40 39 43 48 49 51 53 55 56 55 55 56 57 58 60 61 64 66 68 69 72 74 73 77 79 82 86
50 47 49 52 52 51 50 53 48 46 44 45 47 48 47 47 48 46 47 48 49 53 55 54 51 49 53 55 56 57 58 60 62 62 68 73 75 76 78 80 83 86 91 96
51 49 50 51 51 51 52 56 48 48 48 49 49 49 50 52 54 51 52 52 51 50 51 55 58 58 57 56 58 61 63 65 68 70 72 74 73 77 81 84 89 93 97 101
50 51 55 53 55 55 55 54 52 50 51 50 52 53 54 58 59 58 59 57 54 53 53 56 58 59 59 61 62 62 65 69 71 74 76 78 81 87 89 92 93 98 101 104
57 60 61 59 60 56 55 55 54 53 53 52 54 57 60 61 64 64 63 64 57 56 55 55 57 61 62 64 66 70 73 74 75 79 82 85 88 90 93 96 99 103 104 102
60 60 57 57 58 57 57 57 57 55 54 55 59 62 63 64 67 69 67 65 60 60 57 57 60 64 66 68 70 72 75 77 82 86 87 87 89 93 96 100 101 98 102 104
61 60 60 59 58 58 59 60 59 57 56 58 61 65 65 66 69 71 70 66 64 62 61 58 57 58 62 65 68 71 72 77 82 86 88 92 95 96 97 98 99 98 97 100
65 63 61 60 63 62 63 61 59 58 60 62 65 66 68 69 71 74 72 69 65 64 58 55 56 59 63 68 70 75 78 80 83 86 88 88 89 91 95 96 102 105 104 104
66 62 64 65 66 65 63 62 62 62 64 65 68 70 72 74 76 76 75 71 68 64 60 59 61 64 69 73 70 70 73 75 78 80 82 87 93 99 105 109 111 109 109 109
70 68 67 68 67 67 67 65 65 66 68 70 72 74 76 77 80 78 73 69 66 67 67 68 71 74 79 82 82 82 83 88 92 96 96 100 105 111 115 116 115 113 113 112
68 68 69 69 69 69 69 69 69 71 72 75 77 77 78 80 82 77 68 66 69 72 72 74 79 83 85 86 90 93 97 103 105 105 108 110 114 119 119 118 117 115 115 115
66 67 68 69 70 71 71 73 74 75 76 78 80 82 83 83 78 71 68 69 71 75 78 80 83 87 92 94 96 99 104 106 108 111 114 118 122 120 119 116 116 116 116 115
71 71 73 74 75 75 76 77 79 79 80 82 84 84 86 78 71 68 68 72 75 79 83 87 91 95 99 100 103 106 108 111 115 119 123 123 121 118 116 116 117 116 114 111
76 76 77 78 80 80 80 82 83 84 84 83 86 86 76 73 73 76 76 76 82 87 89 92 96 99 100 104 107 111 115 119 121 123 121 119 117 117 117 117 116 113 110 104
78 80 82 84 85 85 84 84 83 83 85 85 83 76 75 74 76 77 78 81 84 89 94 99 102 105 107 111 115 118 120 120 120 119 118 118 117 118 117 114 110 104 99 94
82 83 85 86 87 87 87 87 87 84 84 78 77 78 77 79 82 84 86 88 90 94 99 103 107 111 113 115 116 118 119 118 118 118 117 117 116 112 107 103 100 96 92 88
85 86 88 87 88 90 90 87 84 82 79 77 78 81 82 85 88 89 92 95 98 101 105 108 111 113 115 116 117 117 116 116 116 116 115 111 106 102 99 96 93 90 87 83
87 88 88 88 88 88 85 85 83 81 81 82 82 83 86 90 93 96 99 101 105 108 109 112 112 114 114 114 113 114 115 114 112 108 103 99 97 94 91 88 85 83 81 78
85 85 83 85 85 85 83 81 81 82 82 84 87 89 93 97 99 101 102 104 107 109 111 111 112 112 112 112 112 111 107 102 99 97 94 92 89 86 84 82 79 77 73 70
79 80 80 80 79 77 77 77 80 83 84 86 90 94 95 97 98 102 104 106 107 108 109 108 108 108 107 105 99 97 95 92 90 89 87 84 82 80 77 74 71 68 65 62

GFSNGP_250_spd_069.txt.gz
Wind_Speed
53 52 51 48 44 41 36 42 38 39 37 29 32 28 29 29 30 30 31 31 28 26 31 36 26 27 31 37 42 50 51 47 50 51 53 59 65 71 73 76 73 72 72 71
57 55 53 50 46 43 40 41 41 40 38 32 36 31 32 32 32 33 33 32 30 26 26 32 39 33 28 27 37 47 50 52 57 58 63 65 68 71 73 74 74 71 68 66
62 57 59 50 44 44 45 43 46 43 42 35 35 34 35 34 33 36 36 35 35 29 28 28 31 34 34 36 35 38 43 49 55 58 60 61 62 62 59 59 62 64 64 64
60 62 52 43 50 50 51 47 42 46 43 38 38 36 38 39 37 39 38 37 35 33 30 27 28 29 30 30 32 37 42 48 52 56 59 61 61 59 57 58 60 63 65 65
67 59 55 50 51 49 49 50 48 47 45 43 41 37 42 43 42 41 43 40 38 37 35 32 31 32 34 35 37 38 40 42 45 49 54 55 58 60 60 60 62 63 63 64
66 61 53 51 53 51 51 47 50 50 50 47 42 40 43 46 47 44 44 43 40 40 41 40 38 39 39 41 43 45 47 46 47 50 50 51 53 52 53 55 58 60 62 65
65 60 59 54 59 60 55 52 60 56 53 50 45 43 46 49 49 49 50 46 43 45 44 46 44 45 46 48 49 51 53 54 55 55 55 55 55 56 57 59 62 65 68 71
69 64 55 55 58 53 53 56 59 57 55 53 51 48 49 50 52 54 53 50 47 48 49 50 51 50 52 52 53 56 58 59 61 59 58 59 60 60 63 66 68 69 71 73
72 62 62 64 67 63 61 60 60 54 57 57 53 50 52 55 57 56 56 53 52 51 53 54 55 57 56 56 57 61 64 65 66 63 65 66 62 62 65 68 71 74 75 73
74 66 66 66 64 66 68 66 65 62 62 60 53 51 53 56 57 57 58 57 57 56 57 58 58 60 60 61 63 66 69 72 73 68 72 74 71 67 64 64 66 66 68 72
77 74 70 66 59 69 67 70 68 67 64 58 53 54 57 60 59 59 59 60 60 62 62 61 61 63 65 66 67 69 73 76 77 74 78 81 77 70 67 68 70 73 75 79
71 74 73 69 71 67 66 72 71 67 62 60 57 58 60 63 60 61 62 63 65 67 67 65 65 66 69 71 72 74 78 80 81 82 82 84 77 73 71 72 75 78 82 86
65 72 75 74 71 70 70 70 70 67 63 63 61 56 61 63 64 64 64 66 69 72 70 69 70 72 73 75 76 78 82 85 86 86 88 88 78 75 74 75 77 80 83 86
65 67 72 73 70 70 71 70 69 68 63 61 61 59 63 66 67 68 68 71 72 73 73 74 78 79 78 79 81 83 85 89 92 90 92 88 80 76 77 80 84 86 89 89
71 68 71 69 69 69 69 70 68 66 65 65 64 64 65 68 71 73 72 71 73 76 78 80 82 85 85 82 85 87 89 93 94 93 95 88 81 79 80 85 87 89 89 92
71 70 72 76 74 70 70 70 66 66 65 66 68 69 70 72 74 75 74 75 78 79 81 83 86 89 88 88 90 92 96 98 97 99 97 89 85 85 87 90 91 95 99 102
77 75 75 75 70 68 69 69 69 70 70 72 72 71 73 75 76 77 78 80 82 84 85 87 89 90 90 93 94 97 99 99 101 103 98 93 91 91 93 94 97 102 106 110
79 76 77 76 73 71 72 76 76 75 76 79 78 77 77 78 79 82 84 85 87 88 89 89 90 91 93 96 99 101 103 102 104 104 98 94 93 93 96 99 105 110 114 116
82 82 80 79 75 72 73 76 76 76 78 79 80 81 82 84 84 86 88 88 90 91 90 91 93 95 98 99 102 104 105 106 107 104 99 96 96 99 103 107 111 113 116 121
80 80 81 82 81 80 79 78 78 77 78 80 82 83 84 86 88 89 90 91 91 91 92 95 98 100 102 104 106 106 107 108 105 102 99 100 101 104 107 110 113 117 123 126
81 81 82 83 84 83 82 81 78 78 80 82 83 85 87 88 89 90 92 92 93 96 100 102 104 105 107 109 108 108 111 110 107 105 103 103 106 109 113 116 120 123 124 125
80 81 82 84 85 84 83 81 82 82 84 86 88 89 89 90 91 93 94 96 99 102 104 106 108 110 111 111 112 111 110 108 106 104 104 107 111 114 117 121 122 122 120 119
82 82 83 85 86 86 86 85 84 85 87 88 88 90 92 94 95 98 100 102 105 107 109 109 111 112 111 111 111 110 108 106 105 106 108 111 115 118 119 118 117 116 115 113
81 83 85 86 87 87 87 87 88 89 90 92 93 94 96 98 100 103 106 108 110 110 111 113 111 109 109 109 107 107 105 106 108 110 113 115 116 115 114 113 112 109 104 101
80 84 87 88 89 89 90 92 93 94 96 98 99 101 103 105 107 108 109 108 111 112 110 108 108 107 107 106 105 106 108 109 111 113 113 113 113 111 108 103 99 96 93 92
77 81 84 87 90 92 94 96 97 98 99 101 103 104 105 106 106 108 110 108 105 105 106 104 103 103 105 106 108 109 110 110 110 110 109 106 102 99 96 93 90 88 85 81
72 76 79 81 84 87 90 92 94 97 98 100 101 103 104 104 103 101 103 103 102 101 100 100 101 103 105 106 108 108 109 108 105 100 97 95 92 89 87 85 82 79 75 73

GFSNGP_250_spd_072.txt.gz
Wind_Speed
57 59 62 59 58 57 48 43 41 36 31 30 32 30 25 25 24 24 22 24 26 26 27 24 19 18 20 21 25 37 40 44 41 44 45 48 51 59 65 68 70 72 75 83
58 61 64 62 58 59 56 41 42 36 31 34 35 33 27 29 25 27 26 24 27 29 31 32 27 20 19 18 18 26 39 47 51 51 54 59 66 69 73 77 79 82 83 87
58 62 65 60 59 59 55 48 43 37 40 36 36 36 35 31 30 31 29 29 28 29 31 30 28 28 25 23 20 20 23 29 35 44 53 60 65 70 74 79 84 87 89 87
65 68 66 54 61 60 54 49 45 40 44 42 39 40 38 33 31 32 32 32 32 32 32 33 32 31 27 29 28 28 29 29 30 33 37 42 46 51 54 58 61 65 70 74
68 69 63 61 59 58 54 50 46 41 48 45 44 43 39 37 35 36 39 37 35 35 35 35 35 34 35 34 33 33 33 33 35 35 35 37 39 45 49 51 55 58 62 67
66 64 62 58 60 58 59 51 48 48 53 52 47 44 42 42 40 40 41 43 42 40 42 42 36 37 37 39 40 39 40 41 41 43 43 44 48 52 53 54 55 57 59 62
63 64 62 59 63 65 64 52 57 56 55 51 44 44 45 44 44 45 45 47 47 46 46 48 45 44 45 45 43 43 45 47 48 49 50 51 54 59 61 61 63 64 63 64
66 66 62 64 64 70 64 61 62 61 55 48 44 45 48 47 50 50 46 49 51 48 48 49 50 51 52 53 53 51 50 54 56 56 57 59 62 65 67 70 73 72 72 71
65 67 65 68 67 66 66 65 66 62 52 45 46 48 50 52 52 53 52 53 53 51 52 53 54 55 55 58 60 59 58 58 60 64 64 65 68 70 72 73 78 78 78 79
70 66 64 69 70 69 69 66 66 64 64 54 49 49 49 52 54 57 55 58 57 55 55 57 57 58 61 62 63 64 64 64 65 69 69 71 73 75 76 79 82 82 82 84
70 69 68 69 71 72 69 64 66 65 64 64 61 62 63 62 62 62 60 59 58 59 60 61 61 62 64 64 64 66 68 69 71 74 75 78 78 79 81 85 87 87 87 89
72 76 72 69 73 69 68 66 64 68 72 71 67 65 63 61 65 65 62 61 62 63 65 65 65 68 68 67 68 70 71 74 76 76 80 83 86 85 86 90 92 92 93 92
76 74 73 70 75 73 69 73 74 71 67 65 67 66 67 67 68 66 65 65 66 66 66 69 70 71 70 71 73 73 76 78 79 84 85 87 89 88 92 94 96 97 97 97
74 74 76 69 73 76 73 72 73 72 73 72 71 71 73 72 72 71 70 68 67 67 69 70 71 72 74 76 74 76 79 82 86 89 89 91 92 93 96 100 100 102 101 101
74 73 73 72 69 75 79 78 75 71 68 65 66 68 70 71 70 70 69 69 70 70 71 73 73 75 76 76 78 80 83 88 90 93 93 95 96 100 101 104 106 106 104 104
75 73 72 71 72 74 77 78 79 75 70 67 67 69 72 72 72 72 73 73 71 72 75 75 77 78 78 79 81 86 89 92 95 96 96 98 100 103 107 108 109 109 108 108
77 75 74 73 73 75 77 77 77 76 75 76 76 75 73 74 75 76 75 74 75 78 81 82 82 83 82 85 89 91 94 97 98 98 99 102 106 110 110 112 112 111 110 109
77 77 75 73 72 73 74 74 74 73 74 75 77 78 78 77 76 77 77 79 82 84 85 84 85 87 89 92 94 96 97 99 100 102 104 108 111 112 114 115 113 114 112 111
78 77 76 74 73 74 74 74 75 76 76 77 78 78 78 79 80 83 86 88 88 89 90 91 92 93 94 96 97 98 100 102 104 106 110 113 115 117 117 116 116 115 113 112
76 77 75 73 75 76 77 77 79 81 82 82 82 82 84 84 84 85 87 89 90 91 92 93 94 95 96 99 101 102 104 106 109 112 115 118 118 119 119 117 115 114 113 113
73 76 78 77 78 81 82 82 82 83 85 85 87 88 90 92 92 92 93 94 96 97 96 97 98 100 101 103 105 107 108 111 113 117 119 117 121 118 116 114 113 113 114 115
72 74 78 80 82 85 87 88 88 88 89 91 92 93 95 96 97 99 100 100 103 101 101 102 103 104 106 107 109 111 112 115 118 118 119 120 115 114 113 113 114 115 115 116
69 75 76 79 83 86 88 90 91 93 94 95 95 95 96 98 101 102 103 105 105 104 105 106 106 108 109 111 112 114 116 117 118 118 115 114 113 112 113 114 113 113 113 110
68 71 75 81 83 85 87 89 90 92 92 94 96 97 98 99 101 103 105 105 106 108 109 109 110 111 112 113 113 113 115 116 114 112 112 112 112 111 110 110 109 106 102 99
63 68 73 78 83 88 89 90 91 93 95 96 97 99 100 101 103 104 105 106 107 109 110 111 112 112 110 111 112 112 109 109 111 111 110 109 108 107 105 102 99 96 93 90
61 67 71 75 76 77 80 85 89 91 94 96 98 99 100 101 102 103 105 107 108 109 109 108 108 109 110 108 107 108 109 108 107 106 104 103 102 99 96 93 91 88 85 83
57 58 63 67 71 74 76 79 82 85 88 90 93 96 98 99 100 101 102 101 101 102 104 104 103 103 105 107 106 105 105 103 102 101 99 96 94 91 88 85 83 82 79 77

GFSNGP_250_spd_075.txt.gz
Wind_Speed
53 63 66 63 64 61 58 53 50 48 48 46 39 30 29 31 29 27 22 20 21 19 19 18 18 20 21 20 15 18 23 35 39 42 43 44 46 46 48 54 56 62 66 68
53 61 64 63 59 57 54 52 53 52 50 46 46 37 29 34 34 31 28 26 25 24 23 22 21 17 19 18 19 18 17 21 30 42 47 52 53 54 56 58 64 68 73 77
55 59 61 58 53 57 55 56 57 51 53 53 45 34 32 37 34 33 30 30 28 25 29 28 27 25 21 20 18 18 19 20 25 31 35 39 47 57 59 61 67 71 76 79
62 66 60 52 62 59 60 59 58 56 59 57 52 37 31 34 36 37 36 33 31 31 31 33 33 31 29 27 25 21 20 22 25 29 34 37 38 40 41 42 46 50 53 53
65 68 60 61 62 63 59 58 58 56 60 59 57 50 39 40 40 41 40 37 35 35 34 34 35 38 35 33 34 33 29 28 29 30 31 34 35 37 40 44 46 48 51 54
65 68 63 64 67 67 62 57 59 60 59 61 54 50 46 44 47 44 43 44 42 39 37 35 37 39 39 41 40 40 39 39 39 38 39 43 43 43 45 47 48 52 56 59
68 69 67 68 68 65 61 57 66 64 58 61 57 56 51 44 45 43 44 44 45 45 42 42 41 41 43 45 46 46 46 46 46 46 49 51 52 52 54 55 57 59 62 66
70 69 65 68 70 66 65 68 67 63 62 64 62 60 54 46 45 45 46 48 50 49 47 48 48 47 48 49 49 50 52 52 53 52 52 53 56 58 60 62 64 66 69 72
69 69 73 73 72 69 68 69 65 64 64 64 64 61 55 49 43 48 48 49 52 51 53 52 53 53 53 53 55 56 57 58 58 57 57 58 60 63 64 65 66 69 75 75
70 75 77 75 74 72 69 67 64 64 66 66 63 61 59 56 54 51 50 53 54 56 56 54 55 59 60 61 61 61 62 63 64 63 63 63 65 67 69 70 71 75 80 81
71 77 77 76 75 75 71 69 69 66 66 64 64 60 62 63 61 59 56 58 59 58 58 60 62 64 65 67 67 67 68 67 68 68 67 68 70 70 71 73 75 82 84 87
68 72 73 76 75 74 72 69 68 69 70 68 67 66 66 64 63 63 62 62 62 61 66 66 65 67 70 71 72 73 73 73 72 72 72 73 75 75 76 76 81 87 89 91
68 66 75 76 74 75 73 70 70 68 70 69 69 71 70 68 66 65 70 71 71 72 71 68 70 72 72 74 76 75 77 77 77 76 76 79 80 80 79 83 90 92 94 95
67 68 75 80 79 78 76 72 71 71 73 75 72 71 71 69 67 68 70 74 76 74 70 73 74 74 75 77 77 78 80 79 79 80 81 83 84 81 84 92 95 97 98 100
64 68 68 77 83 80 79 75 74 73 77 80 75 68 68 69 70 71 73 74 74 76 77 78 78 80 80 80 79 81 81 79 82 84 87 85 83 88 94 97 99 101 103 104
64 70 70 73 85 84 83 81 79 75 73 76 79 77 74 73 74 76 77 78 79 82 83 81 82 83 81 83 85 83 83 84 86 90 87 86 92 96 99 101 102 103 105 108
65 70 73 75 82 88 86 84 80 79 76 75 77 80 80 79 80 82 84 85 86 86 86 86 86 85 85 86 85 86 88 91 92 90 93 96 99 99 101 102 104 106 109 111
70 75 75 75 81 86 87 84 81 80 79 78 80 77 74 75 78 80 80 81 82 83 85 87 87 87 86 88 89 91 93 94 96 98 100 102 104 104 105 107 110 112 113 116
68 73 76 77 79 83 85 85 84 81 80 82 82 82 83 83 83 85 87 88 90 90 89 90 90 90 90 92 94 97 98 100 102 105 107 109 111 111 111 112 113 115 117 120
62 68 72 74 74 77 81 82 82 82 82 83 85 86 88 88 89 88 88 88 89 90 91 92 93 94 96 100 103 104 106 107 109 112 112 115 117 117 116 117 118 120 121 120
56 62 68 72 73 76 80 80 80 82 83 83 85 87 88 88 87 88 89 90 92 94 95 96 99 101 103 105 107 110 112 113 114 115 117 118 118 118 119 120 119 118 120 121
60 63 63 70 74 76 78 81 82 83 84 85 86 87 89 90 91 91 92 93 94 96 99 101 104 106 108 111 114 114 113 113 113 113 114 117 118 119 118 116 119 120 118 115
54 58 62 68 74 76 77 80 83 86 87 88 90 91 93 94 96 98 99 101 102 105 107 109 110 113 116 117 115 113 112 113 113 115 116 116 116 114 117 118 116 113 110 108
53 54 56 60 66 73 79 83 85 87 89 91 93 94 96 99 101 103 105 107 108 109 112 115 116 115 113 111 111 112 113 114 115 115 113 112 114 114 111 109 107 106 105 103
49 54 57 59 63 69 73 76 79 84 89 91 93 95 97 99 101 101 103 106 108 109 110 110 110 110 110 111 112 113 112 111 109 109 111 109 108 107 104 103 102 100 97 93
45 52 56 59 63 66 70 74 80 87 88 87 90 92 95 96 98 101 102 102 103 105 107 108 107 106 107 108 107 105 105 107 107 105 103 102 101 99 99 98 94 91 88 86
42 48 53 58 63 66 69 72 75 79 82 83 85 87 88 90 92 94 95 96 97 99 100 101 102 101 100 101 102 103 102 100 99 99 98 97 96 94 91 89 87 85 83 81

GFSNGP_250_spd_078.txt.gz
Wind_Speed
70 78 77 74 72 72 69 63 56 49 55 60 51 49 47 40 32 34 25 28 24 24 24 23 20 19 17 14 12 11 12 23 35 44 42 42 42 40 41 44 46 49 54 56
59 65 67 65 60 54 55 55 49 50 56 61 56 50 48 48 38 35 32 34 34 30 27 27 26 24 24 20 17 16 17 15 15 20 29 39 42 45 46 48 51 55 59 61
59 63 65 55 48 55 54 50 48 52 60 62 57 52 52 51 45 36 36 38 35 30 28 30 29 29 28 27 24 23 20 20 18 19 22 25 27 31 35 39 42 45 48 49
54 61 57 48 58 58 59 55 51 58 64 64 59 58 55 52 49 37 37 41 39 34 33 34 33 32 31 30 30 28 26 27 29 28 26 27 29 31 32 34 37 39 42 45
62 63 59 54 59 60 56 57 57 60 68 67 65 58 53 54 55 45 41 44 45 39 36 36 38 36 33 31 31 31 31 30 32 33 34 36 39 41 41 42 43 46 47 48
56 62 61 58 60 59 55 58 62 62 66 66 64 56 58 59 59 50 47 48 46 43 42 42 43 42 41 39 38 36 36 35 36 36 38 40 41 44 45 48 50 52 54 56
62 65 61 59 62 57 55 65 62 63 65 66 62 61 60 59 63 59 53 48 49 51 53 49 47 47 45 47 46 45 43 42 43 44 45 46 49 51 50 51 53 55 57 59
63 64 58 60 60 58 63 63 64 66 66 65 64 63 64 64 66 68 63 57 52 50 51 51 51 53 52 53 51 50 49 48 52 53 54 55 56 57 59 59 59 61 61 63
58 54 55 55 58 57 62 67 66 66 66 66 65 64 66 65 69 67 69 66 64 57 52 51 52 52 56 58 57 55 54 54 56 58 59 60 62 63 65 67 66 66 67 69
57 56 59 57 59 65 68 69 69 70 71 71 69 67 67 66 67 70 71 70 66 64 58 57 59 56 60 62 63 62 60 59 62 65 65 66 67 68 70 72 73 73 73 74
61 65 61 59 62 67 68 70 72 74 72 70 70 70 67 67 67 68 71 71 72 71 67 65 67 66 67 66 67 68 65 65 68 69 70 70 73 75 75 76 78 79 78 79
63 65 65 66 66 69 72 71 74 74 73 72 72 71 70 68 68 68 68 69 70 72 73 72 72 73 72 69 69 72 70 73 74 73 74 76 78 81 79 80 82 83 83 86
62 65 65 69 63 68 71 74 77 76 74 73 71 69 69 71 71 70 70 68 69 71 72 75 77 75 76 76 76 77 78 81 80 78 80 83 84 84 85 86 88 87 88 90
62 66 65 67 67 66 73 80 79 77 75 76 75 73 70 70 70 71 71 72 72 72 72 74 76 78 78 80 82 84 85 84 82 82 85 85 88 89 91 92 93 93 94 94
62 64 64 63 71 70 72 84 84 82 80 80 79 78 76 76 75 74 74 75 74 74 73 74 75 74 78 82 85 84 85 85 85 88 88 94 92 94 95 97 96 95 96 97
58 62 65 65 71 73 72 82 86 85 84 82 82 80 78 77 77 77 77 77 76 74 75 77 77 79 82 84 86 87 88 90 93 95 98 99 99 101 101 101 99 99 101 104
55 58 63 66 68 74 75 77 85 85 85 83 82 79 79 78 79 80 78 79 82 83 81 81 82 85 87 89 90 92 95 98 101 102 104 105 105 106 103 101 102 105 110 110
53 56 61 66 70 73 79 79 82 86 86 85 84 82 82 82 83 83 83 82 83 85 86 86 88 89 91 94 96 98 101 105 108 107 107 108 107 106 104 106 109 111 113 117
51 54 55 62 68 72 75 81 81 83 89 91 90 87 86 86 86 87 88 88 87 88 89 92 94 97 100 102 104 106 107 107 107 109 108 107 108 107 109 111 113 117 121 125
50 53 55 59 61 67 72 75 80 80 82 88 95 95 94 92 92 91 90 91 91 91 91 91 92 94 96 99 102 104 106 108 109 109 109 109 110 111 114 118 122 125 128 127
48 52 55 55 56 64 71 75 78 82 81 81 87 95 98 96 95 96 95 95 96 97 98 98 99 101 103 106 108 109 109 109 110 111 111 113 116 119 123 125 126 129 125 121
47 49 51 53 53 61 67 73 77 79 81 81 83 89 96 98 98 99 100 100 100 101 103 104 105 105 106 107 109 110 110 112 114 115 117 120 123 125 126 127 123 120 119 120
41 45 49 51 54 58 63 70 74 77 80 83 83 85 89 93 98 101 102 104 105 105 105 106 107 108 110 111 111 113 114 116 118 121 122 122 122 121 120 118 118 118 114 112
40 43 46 48 49 51 57 67 71 73 75 79 84 87 88 90 94 97 100 102 103 105 106 107 109 110 111 113 114 115 117 119 118 117 118 119 117 114 116 115 112 111 109 105
37 40 43 46 49 51 54 58 64 69 72 73 79 84 87 90 92 94 96 99 101 103 104 106 106 107 108 110 112 113 113 114 114 113 111 111 112 110 108 107 106 103 101 98
35 39 42 45 46 50 54 58 63 66 69 73 76 79 84 88 91 94 95 96 97 96 97 100 102 104 105 107 108 108 108 108 107 107 107 106 104 103 101 99 98 96 92 89
36 38 40 42 45 47 50 53 59 63 68 72 76 78 80 83 86 90 94 96 96 96 97 98 100 102 103 103 102 101 101 102 102 100 99 98 97 95 94 93 90 87 85 83

GFSNGP_250_spd_081.txt.gz
Wind_Speed
77 82 88 85 82 80 77 72 69 68 65 63 64 59 55 51 50 47 46 38 39 32 21 21 22 19 17 18 17 15 14 15 16 17 23 27 29 32 33 32 33 37 40 44
66 73 79 82 81 79 77 77 74 75 71 68 69 66 59 54 54 45 50 42 40 39 33 29 28 26 23 23 20 19 19 18 20 19 19 18 21 24 28 30 32 33 36 38
60 70 73 74 65 72 71 70 69 69 69 66 67 68 57 59 58 50 53 50 47 42 41 37 35 31 27 26 25 24 23 23 22 22 23 24 25 24 25 27 30 32 35 36
58 64 70 67 66 65 66 67 66 62 61 63 63 67 59 60 61 52 52 53 49 49 44 43 42 37 31 28 29 30 28 27 26 27 29 28 28 29 31 33 36 38 40 43
59 64 65 55 62 64 62 62 59 58 61 63 63 65 60 67 70 62 57 56 52 50 49 46 44 40 34 30 32 33 33 31 31 29 30 31 32 34 35 38 39 41 42 44
52 55 57 52 60 61 54 57 60 58 56 60 63 67 67 72 69 65 58 57 60 56 51 50 45 44 41 35 36 38 41 41 40 39 39 40 40 41 42 42 44 45 48 50
54 55 57 49 55 56 54 60 58 56 55 61 67 69 67 70 70 69 63 60 61 60 57 54 47 44 48 44 45 46 45 47 48 48 47 47 47 50 50 48 49 52 54 56
55 57 56 48 51 52 53 57 58 57 58 64 71 75 72 70 71 71 69 64 63 61 64 61 59 50 48 53 54 53 52 53 54 55 54 53 54 55 58 58 59 61 63 64
53 55 54 50 49 57 56 58 57 57 60 68 70 74 76 75 72 72 71 69 68 66 64 67 61 62 56 53 56 58 55 54 55 57 64 63 60 62 62 66 67 68 70 70
49 51 53 50 51 54 53 54 55 57 57 63 70 73 77 79 74 72 70 70 70 71 72 70 67 67 67 68 67 65 67 67 67 69 69 67 67 67 71 73 74 76 76 76
48 53 52 52 55 53 52 54 55 56 56 65 71 76 76 78 77 70 70 74 72 71 71 71 72 72 71 70 72 71 71 72 74 75 75 73 72 74 78 78 80 83 84 83
45 49 55 56 57 53 52 54 52 57 56 66 73 75 76 77 76 73 74 72 71 73 74 75 74 74 76 75 75 77 78 80 78 78 78 79 81 83 86 86 87 88 89 89
46 48 52 56 55 56 55 58 59 58 59 67 73 76 76 76 75 75 71 72 70 71 72 75 71 75 80 82 82 81 86 86 85 85 83 83 83 85 90 91 91 94 95 96
48 50 51 55 61 61 62 63 62 62 64 68 76 78 77 76 76 76 76 74 74 73 70 76 74 78 82 82 83 85 86 86 88 87 86 86 88 91 92 92 95 95 96 99
49 51 53 54 58 65 64 66 66 68 69 70 75 80 81 81 80 78 78 77 78 78 78 78 76 78 80 82 85 86 86 86 88 87 87 88 90 92 94 96 99 98 101 102
47 50 54 55 54 60 64 65 68 71 70 70 76 79 84 83 82 81 80 80 79 80 80 80 78 81 85 88 87 88 89 91 92 92 93 95 96 97 99 100 103 104 105 109
47 48 52 56 54 54 58 64 68 67 68 68 75 78 80 83 85 85 84 84 83 83 82 82 83 85 86 89 90 91 94 94 96 97 97 99 100 102 105 108 108 110 114 116
49 48 48 56 52 49 53 57 61 66 70 72 71 77 80 83 86 86 85 85 85 86 87 86 87 88 90 91 92 93 94 97 98 100 103 105 106 108 110 112 115 115 115 116
47 48 49 53 49 46 50 55 59 62 68 73 76 78 79 84 86 89 91 91 92 92 92 93 93 93 93 94 95 97 98 99 100 101 103 105 107 110 113 114 115 117 119 120
45 45 45 46 45 48 51 54 55 58 64 72 76 76 77 78 82 90 94 96 96 96 96 95 96 97 98 99 100 101 103 104 105 106 107 109 110 112 115 118 120 121 121 121
37 39 41 44 47 49 51 50 52 55 59 64 71 76 77 78 82 83 88 94 97 98 99 100 101 102 103 105 106 107 108 109 110 111 112 114 116 117 118 119 118 121 121 121
36 38 40 42 44 48 49 49 50 53 57 62 67 72 78 80 80 83 86 88 92 97 101 104 106 107 108 110 111 113 114 115 116 117 119 120 121 121 120 121 121 120 122 119
37 38 39 41 41 45 47 50 52 55 57 62 65 69 73 77 79 81 83 88 91 93 96 101 105 108 109 112 114 115 115 116 116 117 118 117 118 119 117 117 119 116 114 116
38 39 41 43 44 46 49 51 53 53 54 57 62 66 71 74 76 78 80 84 87 90 93 95 97 99 100 101 104 107 108 108 108 110 112 111 109 112 115 113 111 112 111 106
36 39 40 42 44 45 47 49 51 52 54 56 59 63 67 70 73 74 77 80 83 86 87 90 93 94 96 99 100 101 104 105 104 104 106 110 112 109 106 106 105 104 105 104
35 38 40 42 44 46 47 48 49 51 53 54 57 60 63 66 68 71 73 76 80 82 85 87 90 91 93 97 100 101 104 106 106 106 104 102 102 101 101 100 100 100 98 96
34 36 39 41 43 46 48 50 51 52 54 55 58 59 62 65 68 71 73 75 78 79 82 85 88 90 92 94 96 97 96 95 95 95 95 96 97 96 96 94 93 90 88 85

GFSNGP_250_spd_084.txt.gz
Wind_Speed
82 83 85 83 80 80 77 69 69 62 61 60 61 68 65 65 63 55 45 40 42 41 37 39 33 26 23 21 20 17 12 10 11 12 12 11 10 17 24 23 29 33 35 38
83 88 88 85 87 84 80 76 75 76 72 69 66 70 69 65 65 61 50 46 45 45 43 43 45 36 29 29 26 23 21 17 17 16 16 18 19 18 17 16 15 17 19 22
75 79 81 81 87 86 84 85 79 76 72 72 72 72 74 75 72 68 61 54 49 50 46 47 48 45 43 36 33 30 28 26 24 23 22 22 22 23 23 22 23 25 27 29
64 74 74 76 80 82 81 80 79 81 82 82 80 78 79 80 75 70 66 60 49 53 52 48 52 49 45 43 41 37 35 33 30 28 28 28 28 28 27 29 29 30 32 34
59 68 67 68 73 77 77 76 77 75 78 78 77 75 78 82 75 70 66 64 54 57 58 55 52 52 50 48 44 41 41 40 37 35 33 34 34 34 34 35 36 37 38 40
54 59 60 65 69 69 69 68 66 69 71 71 72 72 75 74 72 68 61 60 58 61 61 61 58 54 53 51 50 46 44 45 43 41 39 41 42 44 45 45 46 46 48 50
49 52 54 58 61 63 61 58 61 60 61 63 65 66 66 68 67 59 57 59 64 64 61 57 59 55 55 46 51 55 51 46 48 45 45 46 47 49 51 53 54 55 57 57
49 49 52 54 58 59 58 51 53 58 59 58 60 62 63 64 63 60 59 62 67 69 67 61 60 59 58 59 58 57 57 54 47 53 54 52 52 53 56 58 60 63 65 65
43 49 51 53 55 57 59 49 53 56 51 54 58 58 60 63 63 61 61 64 68 71 74 70 64 61 63 62 65 61 61 57 56 54 53 55 57 61 66 70 72 71 71 72
44 49 51 56 56 57 56 50 52 54 52 52 54 55 59 63 61 62 65 68 71 74 75 74 73 69 65 65 65 64 62 66 68 69 72 73 75 77 79 76 76 76 77 78
44 47 50 52 53 57 54 49 49 53 55 52 51 53 59 64 64 65 66 68 70 73 75 74 76 76 74 71 69 69 70 67 66 69 71 73 74 76 79 78 80 82 82 81
40 43 48 50 50 52 52 50 45 52 55 52 51 54 57 64 68 68 68 67 69 71 70 70 73 77 78 76 78 76 76 75 76 77 78 78 81 83 84 84 83 88 90 89
39 41 42 45 48 53 54 50 47 46 49 51 53 55 57 61 68 71 69 70 67 69 75 75 77 75 76 75 76 77 79 81 83 85 84 80 82 86 90 88 91 94 97 96
41 42 44 47 47 49 51 52 52 53 53 53 54 58 58 59 65 70 73 72 70 70 69 75 80 79 73 75 77 79 84 82 85 87 88 90 92 94 97 97 97 97 97 99
41 42 43 44 47 51 55 56 55 53 52 57 57 60 62 62 65 70 71 72 75 73 74 74 74 75 77 75 76 79 81 82 84 87 91 92 94 95 98 99 100 99 101 103
45 45 47 47 46 47 49 52 55 57 59 59 63 65 67 66 68 73 76 77 79 79 81 81 81 80 78 78 79 82 84 84 87 88 90 91 92 93 95 98 100 103 105 107
43 44 47 49 49 49 50 50 52 54 56 59 63 66 70 70 75 75 78 80 81 85 85 84 85 86 86 87 87 90 92 93 92 92 95 95 97 99 101 104 105 107 110 110
45 45 46 48 50 50 49 48 48 47 45 48 56 63 68 71 75 79 79 82 86 87 89 90 90 90 91 92 93 95 97 99 101 100 100 102 104 106 108 109 110 110 113 114
49 48 47 47 45 45 48 50 48 47 43 45 49 57 68 66 70 72 76 82 86 89 93 94 95 96 96 98 100 101 102 104 105 106 107 108 109 110 111 112 113 115 117 118
46 42 41 41 43 46 48 47 47 45 43 45 47 53 59 63 66 70 73 77 81 87 90 93 95 99 102 103 104 105 106 107 108 109 110 110 111 112 114 116 117 118 120 121
39 38 38 38 38 38 39 40 40 41 43 44 46 49 54 58 62 67 72 76 80 84 86 89 91 94 96 99 103 106 108 109 110 112 113 113 114 116 117 118 120 119 120 119
35 35 36 36 37 39 40 41 42 44 46 48 50 52 54 57 61 65 70 75 79 83 86 89 90 93 93 94 95 97 100 103 107 111 113 114 115 115 116 117 119 119 118 119
35 37 37 39 40 41 41 43 45 47 49 51 53 54 55 58 61 63 66 70 75 79 83 86 88 90 92 94 96 98 99 101 102 103 104 106 107 107 107 108 110 111 109 109
35 36 38 39 41 42 43 44 46 48 51 51 53 55 55 57 59 61 64 67 70 73 76 78 81 84 87 89 92 94 97 98 99 98 98 99 101 104 106 106 105 105 106 106
38 38 39 40 41 42 43 44 46 47 50 52 54 54 56 58 59 60 63 65 67 70 73 75 76 77 79 81 84 87 90 92 93 94 96 98 98 99 101 101 100 99 96 96
35 37 39 40 41 43 44 46 47 49 50 51 52 54 55 57 57 58 60 61 63 65 67 70 73 75 77 78 80 82 83 84 85 87 89 91 91 92 93 93 92 91 91 91
36 38 39 40 42 44 45 47 49 50 51 52 53 54 55 56 57 58 58 60 62 64 66 67 69 70 71 73 74 75 76 77 78 79 80 82 82 83 85 86 85 85 84 83